Time,TemperatureF,DewpointF,PressureIn,WindDirection,WindDirectionDegrees,WindSpeedMPH,WindSpeedGustMPH,Humidity,HourlyPrecipIn,Conditions,Clouds,dailyrainin,SoftwareType,DateUTC
2013-05-09 00:01:00,71.8,57.6,-100.00,SSE,164,9.0,14.0,61,0.00,,,0.00,meteohub,2013-05-09 05:01:00,
2013-05-09 00:04:00,71.6,57.9,-100.00,SSE,166,9.0,14.0,62,0.00,,,0.00,meteohub,2013-05-09 05:04:00,
2013-05-09 00:05:00,71.6,57.9,-100.00,South,171,13.0,14.0,62,0.00,,,0.00,meteohub,2013-05-09 05:05:00,
2013-05-09 00:06:00,71.6,57.9,-100.00,SSE,162,9.0,15.0,62,0.00,,,0.00,meteohub,2013-05-09 05:06:00,
2013-05-09 00:09:00,71.4,57.7,-100.00,South,172,6.0,15.0,62,0.00,,,0.00,meteohub,2013-05-09 05:09:00,
2013-05-09 00:10:00,71.4,57.7,-100.00,SSE,164,10.0,15.0,62,0.00,,,0.00,meteohub,2013-05-09 05:10:00,
2013-05-09 00:11:00,71.4,57.7,-100.00,SSE,163,7.0,15.0,62,0.00,,,0.00,meteohub,2013-05-09 05:11:00,
2013-05-09 00:14:00,71.4,57.7,-100.00,SE,145,11.0,15.0,62,0.00,,,0.00,meteohub,2013-05-09 05:14:00,
2013-05-09 00:15:00,71.4,57.2,-100.00,SSE,156,10.0,15.0,61,0.00,,,0.00,meteohub,2013-05-09 05:15:00,
2013-05-09 00:17:00,71.4,57.2,-100.00,SSE,163,7.0,18.0,61,0.00,,,0.00,meteohub,2013-05-09 05:17:00,
2013-05-09 00:19:00,71.4,57.2,-100.00,SSE,162,6.0,18.0,61,0.00,,,0.00,meteohub,2013-05-09 05:19:00,
2013-05-09 00:20:00,71.4,57.2,-100.00,SSE,157,10.0,18.0,61,0.00,,,0.00,meteohub,2013-05-09 05:20:00,
2013-05-09 00:21:00,71.4,57.2,-100.00,South,171,10.0,18.0,61,0.00,,,0.00,meteohub,2013-05-09 05:21:00,
2013-05-09 00:22:00,71.4,56.8,-100.00,SSE,158,12.0,18.0,60,0.00,,,0.00,meteohub,2013-05-09 05:22:00,
2013-05-09 00:24:00,71.4,56.8,-100.00,SSE,160,5.0,18.0,60,0.00,,,0.00,meteohub,2013-05-09 05:24:00,
2013-05-09 00:25:00,71.6,57.0,-100.00,SSE,163,11.0,18.0,60,0.00,,,0.00,meteohub,2013-05-09 05:25:00,
2013-05-09 00:26:00,71.6,57.0,-100.00,SSE,163,10.0,18.0,60,0.00,,,0.00,meteohub,2013-05-09 05:26:00,
2013-05-09 00:27:00,71.6,57.0,-100.00,SSE,168,10.0,18.0,60,0.00,,,0.00,meteohub,2013-05-09 05:27:00,
2013-05-09 00:29:00,71.6,57.0,-100.00,SSE,161,7.0,18.0,60,0.00,,,0.00,meteohub,2013-05-09 05:29:00,
2013-05-09 00:30:00,71.6,57.0,-100.00,South,189,6.0,17.0,60,0.00,,,0.00,meteohub,2013-05-09 05:30:00,
2013-05-09 00:31:00,71.6,57.0,-100.00,South,169,9.0,17.0,60,0.00,,,0.00,meteohub,2013-05-09 05:31:00,
2013-05-09 00:34:00,71.6,57.0,-100.00,SSE,165,7.0,17.0,60,0.00,,,0.00,meteohub,2013-05-09 05:34:00,
2013-05-09 00:35:00,71.4,56.8,-100.00,SSE,160,9.0,17.0,60,0.00,,,0.00,meteohub,2013-05-09 05:35:00,
2013-05-09 00:36:00,71.4,56.8,-100.00,South,170,6.0,17.0,60,0.00,,,0.00,meteohub,2013-05-09 05:36:00,
2013-05-09 00:39:00,71.4,56.8,-100.00,South,169,6.0,17.0,60,0.00,,,0.00,meteohub,2013-05-09 05:39:00,
2013-05-09 00:40:00,71.4,56.8,-100.00,SSE,167,6.0,17.0,60,0.00,,,0.00,meteohub,2013-05-09 05:40:00,
2013-05-09 00:41:00,71.4,56.8,-100.00,SSE,167,4.0,17.0,60,0.00,,,0.00,meteohub,2013-05-09 05:41:00,
2013-05-09 00:42:00,71.4,56.8,-100.00,SSE,165,10.0,17.0,60,0.00,,,0.00,meteohub,2013-05-09 05:42:00,
2013-05-09 00:45:00,71.2,56.7,-100.00,SSE,161,5.0,17.0,60,0.00,,,0.00,meteohub,2013-05-09 05:45:00,
2013-05-09 00:46:00,71.2,56.7,-100.00,SSE,153,7.0,14.0,60,0.00,,,0.00,meteohub,2013-05-09 05:46:00,
2013-05-09 00:47:00,71.2,56.7,-100.00,SSE,163,10.0,14.0,60,0.00,,,0.00,meteohub,2013-05-09 05:47:00,
2013-05-09 00:48:00,71.2,56.7,-100.00,SSE,150,5.0,14.0,60,0.00,,,0.00,meteohub,2013-05-09 05:48:00,
2013-05-09 00:50:00,71.2,56.7,-100.00,South,171,9.0,14.0,60,0.00,,,0.00,meteohub,2013-05-09 05:50:00,
2013-05-09 00:51:00,71.2,56.7,-100.00,SSE,165,10.0,14.0,60,0.00,,,0.00,meteohub,2013-05-09 05:51:00,
2013-05-09 00:52:00,71.1,56.5,-100.00,SSE,162,5.0,14.0,60,0.00,,,0.00,meteohub,2013-05-09 05:52:00,
2013-05-09 00:53:00,71.1,56.5,-100.00,SSE,163,9.0,14.0,60,0.00,,,0.00,meteohub,2013-05-09 05:53:00,
2013-05-09 00:55:00,71.1,56.5,-100.00,South,173,6.0,14.0,60,0.00,,,0.00,meteohub,2013-05-09 05:55:00,
2013-05-09 00:56:00,70.9,56.3,-100.00,SSE,165,3.0,16.0,60,0.00,,,0.00,meteohub,2013-05-09 05:56:00,
2013-05-09 00:57:00,70.9,56.8,-100.00,South,175,9.0,16.0,61,0.00,,,0.00,meteohub,2013-05-09 05:57:00,
2013-05-09 00:58:00,70.9,56.8,-100.00,SSE,165,9.0,16.0,61,0.00,,,0.00,meteohub,2013-05-09 05:58:00,
2013-05-09 01:00:00,70.9,56.8,-100.00,SSE,167,8.0,16.0,61,0.00,,,0.00,meteohub,2013-05-09 06:00:00,
2013-05-09 01:02:00,70.9,56.8,-100.00,SSE,162,7.0,16.0,61,0.00,,,0.00,meteohub,2013-05-09 06:02:00,
2013-05-09 01:03:00,70.5,56.5,-100.00,South,175,13.0,16.0,61,0.00,,,0.00,meteohub,2013-05-09 06:03:00,
2013-05-09 01:04:00,70.5,56.5,-100.00,South,169,7.0,16.0,61,0.00,,,0.00,meteohub,2013-05-09 06:04:00,
2013-05-09 01:05:00,70.5,56.5,-100.00,SSE,159,9.0,16.0,61,0.00,,,0.00,meteohub,2013-05-09 06:05:00,
2013-05-09 01:07:00,70.5,56.5,-100.00,SSE,167,9.0,16.0,61,0.00,,,0.00,meteohub,2013-05-09 06:07:00,
2013-05-09 01:08:00,70.5,56.5,-100.00,SSE,161,6.0,16.0,61,0.00,,,0.00,meteohub,2013-05-09 06:08:00,
2013-05-09 01:10:00,70.5,56.5,-100.00,SSE,165,7.0,16.0,61,0.00,,,0.00,meteohub,2013-05-09 06:10:00,
2013-05-09 01:13:00,70.3,56.7,-100.00,South,180,5.0,16.0,62,0.00,,,0.00,meteohub,2013-05-09 06:13:00,
2013-05-09 01:15:00,70.3,56.7,-100.00,South,189,5.0,16.0,62,0.00,,,0.00,meteohub,2013-05-09 06:15:00,
2013-05-09 01:18:00,70.3,56.7,-100.00,SSE,161,7.0,16.0,62,0.00,,,0.00,meteohub,2013-05-09 06:18:00,
2013-05-09 01:19:00,70.3,56.7,-100.00,SSE,167,3.0,16.0,62,0.00,,,0.00,meteohub,2013-05-09 06:19:00,
2013-05-09 01:20:00,70.3,56.7,-100.00,South,169,6.0,15.0,62,0.00,,,0.00,meteohub,2013-05-09 06:20:00,
2013-05-09 01:21:00,70.3,56.7,-100.00,South,179,7.0,15.0,62,0.00,,,0.00,meteohub,2013-05-09 06:21:00,
2013-05-09 01:23:00,70.2,57.0,-100.00,South,179,4.0,15.0,63,0.00,,,0.00,meteohub,2013-05-09 06:23:00,
2013-05-09 01:24:00,70.2,57.0,-100.00,South,180,9.0,15.0,63,0.00,,,0.00,meteohub,2013-05-09 06:24:00,
2013-05-09 01:25:00,70.2,57.0,-100.00,South,172,7.0,15.0,63,0.00,,,0.00,meteohub,2013-05-09 06:25:00,
2013-05-09 01:26:00,70.2,57.0,-100.00,SSE,166,6.0,14.0,63,0.00,,,0.00,meteohub,2013-05-09 06:26:00,
2013-05-09 01:28:00,70.2,57.0,-100.00,South,169,13.0,14.0,63,0.00,,,0.00,meteohub,2013-05-09 06:28:00,
2013-05-09 01:29:00,70.2,57.0,-100.00,South,180,5.0,14.0,63,0.00,,,0.00,meteohub,2013-05-09 06:29:00,
2013-05-09 01:30:00,70.2,57.0,-100.00,South,182,4.0,15.0,63,0.00,,,0.00,meteohub,2013-05-09 06:30:00,
2013-05-09 01:31:00,70.2,57.0,-100.00,South,188,7.0,15.0,63,0.00,,,0.00,meteohub,2013-05-09 06:31:00,
2013-05-09 01:32:00,70.2,57.4,-100.00,South,178,12.0,15.0,64,0.00,,,0.00,meteohub,2013-05-09 06:32:00,
2013-05-09 01:34:00,70.2,57.4,-100.00,South,173,8.0,15.0,64,0.00,,,0.00,meteohub,2013-05-09 06:34:00,
2013-05-09 01:36:00,70.2,57.4,-100.00,South,173,10.0,15.0,64,0.00,,,0.00,meteohub,2013-05-09 06:36:00,
2013-05-09 01:37:00,70.2,57.4,-100.00,South,182,5.0,15.0,64,0.00,,,0.00,meteohub,2013-05-09 06:37:00,
2013-05-09 01:39:00,70.0,57.2,-100.00,South,191,14.0,15.0,64,0.00,,,0.00,meteohub,2013-05-09 06:39:00,
2013-05-09 01:41:00,70.0,57.2,-100.00,South,186,12.0,17.0,64,0.00,,,0.00,meteohub,2013-05-09 06:41:00,
2013-05-09 01:42:00,70.0,57.2,-100.00,South,171,9.0,17.0,64,0.00,,,0.00,meteohub,2013-05-09 06:42:00,
2013-05-09 01:44:00,69.8,57.0,-100.00,South,181,12.0,17.0,64,0.00,,,0.00,meteohub,2013-05-09 06:44:00,
2013-05-09 01:45:00,69.8,57.0,-100.00,South,178,12.0,17.0,64,0.00,,,0.00,meteohub,2013-05-09 06:45:00,
2013-05-09 01:46:00,69.8,57.0,-100.00,South,185,13.0,17.0,64,0.00,,,0.00,meteohub,2013-05-09 06:46:00,
2013-05-09 01:48:00,69.8,57.0,-100.00,South,179,6.0,17.0,64,0.00,,,0.00,meteohub,2013-05-09 06:48:00,
2013-05-09 01:49:00,69.8,57.6,-100.00,South,173,6.0,17.0,65,0.00,,,0.00,meteohub,2013-05-09 06:49:00,
2013-05-09 01:50:00,69.8,57.6,-100.00,SSW,194,6.0,17.0,65,0.00,,,0.00,meteohub,2013-05-09 06:50:00,
2013-05-09 01:51:00,69.8,57.6,-100.00,South,191,15.0,17.0,65,0.00,,,0.00,meteohub,2013-05-09 06:51:00,
2013-05-09 01:52:00,69.8,57.6,-100.00,South,182,2.0,17.0,65,0.00,,,0.00,meteohub,2013-05-09 06:52:00,
2013-05-09 01:54:00,69.8,57.6,-100.00,SSE,168,11.0,17.0,65,0.00,,,0.00,meteohub,2013-05-09 06:54:00,
2013-05-09 01:55:00,69.6,57.4,-100.00,South,177,7.0,17.0,65,0.00,,,0.00,meteohub,2013-05-09 06:55:00,
2013-05-09 01:57:00,69.6,57.4,-100.00,South,188,14.0,17.0,65,0.00,,,0.00,meteohub,2013-05-09 06:57:00,
2013-05-09 01:59:00,69.6,57.4,-100.00,South,181,4.0,17.0,65,0.00,,,0.00,meteohub,2013-05-09 06:59:00,
2013-05-09 02:01:00,69.6,57.7,-100.00,South,171,11.0,17.0,66,0.00,,,0.00,meteohub,2013-05-09 07:01:00,
2013-05-09 02:02:00,69.4,57.6,-100.00,SSE,167,6.0,17.0,66,0.00,,,0.00,meteohub,2013-05-09 07:02:00,
2013-05-09 02:04:00,69.4,57.6,-100.00,SSE,166,7.0,17.0,66,0.00,,,0.00,meteohub,2013-05-09 07:04:00,
2013-05-09 02:06:00,69.4,57.6,-100.00,South,176,5.0,17.0,66,0.00,,,0.00,meteohub,2013-05-09 07:06:00,
2013-05-09 02:08:00,69.3,57.4,-100.00,SSW,194,6.0,17.0,66,0.00,,,0.00,meteohub,2013-05-09 07:08:00,
2013-05-09 02:10:00,69.3,57.9,-100.00,South,181,3.0,17.0,67,0.00,,,0.00,meteohub,2013-05-09 07:10:00,
2013-05-09 02:11:00,69.3,57.9,-100.00,SSW,192,7.0,17.0,67,0.00,,,0.00,meteohub,2013-05-09 07:11:00,
2013-05-09 02:13:00,69.1,57.7,-100.00,South,180,4.0,17.0,67,0.00,,,0.00,meteohub,2013-05-09 07:13:00,
2013-05-09 02:15:00,69.1,57.7,-100.00,SSE,165,5.0,17.0,67,0.00,,,0.00,meteohub,2013-05-09 07:15:00,
2013-05-09 02:16:00,69.1,57.7,-100.00,SSW,204,4.0,17.0,67,0.00,,,0.00,meteohub,2013-05-09 07:16:00,
2013-05-09 02:17:00,69.1,57.7,-100.00,SSW,201,4.0,17.0,67,0.00,,,0.00,meteohub,2013-05-09 07:17:00,
2013-05-09 02:18:00,69.1,57.7,-100.00,South,175,9.0,17.0,67,0.00,,,0.00,meteohub,2013-05-09 07:18:00,
2013-05-09 02:20:00,68.9,57.9,-100.00,South,186,2.0,17.0,68,0.00,,,0.00,meteohub,2013-05-09 07:20:00,
2013-05-09 02:21:00,68.9,57.9,-100.00,SSE,167,15.0,17.0,68,0.00,,,0.00,meteohub,2013-05-09 07:21:00,
2013-05-09 02:22:00,68.9,57.9,-100.00,South,184,5.0,17.0,68,0.00,,,0.00,meteohub,2013-05-09 07:22:00,
2013-05-09 02:23:00,68.9,57.9,-100.00,SSW,200,7.0,17.0,68,0.00,,,0.00,meteohub,2013-05-09 07:23:00,
2013-05-09 02:24:00,68.9,57.9,-100.00,South,178,5.0,17.0,68,0.00,,,0.00,meteohub,2013-05-09 07:24:00,
2013-05-09 02:25:00,68.9,57.9,-100.00,South,173,12.0,17.0,68,0.00,,,0.00,meteohub,2013-05-09 07:25:00,
2013-05-09 02:27:00,68.7,58.1,-100.00,South,186,4.0,17.0,69,0.00,,,0.00,meteohub,2013-05-09 07:27:00,
2013-05-09 02:28:00,68.7,58.1,-100.00,South,188,6.0,17.0,69,0.00,,,0.00,meteohub,2013-05-09 07:28:00,
2013-05-09 02:29:00,68.7,58.1,-100.00,South,182,3.0,17.0,69,0.00,,,0.00,meteohub,2013-05-09 07:29:00,
2013-05-09 02:31:00,68.7,58.1,-100.00,South,182,5.0,15.0,69,0.00,,,0.00,meteohub,2013-05-09 07:31:00,
2013-05-09 02:32:00,68.7,58.1,-100.00,SSE,168,16.0,16.0,69,0.00,,,0.00,meteohub,2013-05-09 07:32:00,
2013-05-09 02:33:00,68.5,57.9,-100.00,South,184,3.0,15.0,69,0.00,,,0.00,meteohub,2013-05-09 07:33:00,
2013-05-09 02:34:00,68.5,57.9,-100.00,South,176,12.0,15.0,69,0.00,,,0.00,meteohub,2013-05-09 07:34:00,
2013-05-09 02:37:00,68.5,58.3,-100.00,South,178,6.0,16.0,70,0.00,,,0.00,meteohub,2013-05-09 07:37:00,
2013-05-09 02:38:00,68.5,58.3,-100.00,South,177,7.0,16.0,70,0.00,,,0.00,meteohub,2013-05-09 07:38:00,
2013-05-09 02:39:00,68.5,58.3,-100.00,South,186,3.0,16.0,70,0.00,,,0.00,meteohub,2013-05-09 07:39:00,
2013-05-09 02:42:00,68.4,58.3,-100.00,SSW,200,6.0,16.0,70,0.00,,,0.00,meteohub,2013-05-09 07:42:00,
2013-05-09 02:43:00,68.4,58.6,-100.00,South,178,7.0,16.0,71,0.00,,,0.00,meteohub,2013-05-09 07:43:00,
2013-05-09 02:44:00,68.4,58.6,-100.00,South,172,11.0,16.0,71,0.00,,,0.00,meteohub,2013-05-09 07:44:00,
2013-05-09 02:47:00,68.4,58.6,-100.00,SSW,196,9.0,16.0,71,0.00,,,0.00,meteohub,2013-05-09 07:47:00,
2013-05-09 02:48:00,68.4,58.6,-100.00,SSW,193,8.0,16.0,71,0.00,,,0.00,meteohub,2013-05-09 07:48:00,
2013-05-09 02:49:00,68.4,58.6,-100.00,SSW,197,7.0,16.0,71,0.00,,,0.00,meteohub,2013-05-09 07:49:00,
2013-05-09 02:53:00,68.4,58.6,-100.00,SSW,200,5.0,15.0,71,0.00,,,0.00,meteohub,2013-05-09 07:53:00,
2013-05-09 02:54:00,68.2,58.8,-100.00,South,186,4.0,15.0,72,0.00,,,0.00,meteohub,2013-05-09 07:54:00,
2013-05-09 02:58:00,68.2,58.8,-100.00,SSW,193,5.0,15.0,72,0.00,,,0.00,meteohub,2013-05-09 07:58:00,
2013-05-09 02:59:00,68.2,58.8,-100.00,SSW,196,7.0,15.0,72,0.00,,,0.00,meteohub,2013-05-09 07:59:00,
2013-05-09 03:00:00,67.8,59.9,-100.00,SSW,209,4.0,15.0,76,0.00,,,0.00,meteohub,2013-05-09 08:00:00,
2013-05-09 03:03:00,67.8,58.8,-100.00,SSW,201,11.0,14.0,73,0.00,,,0.00,meteohub,2013-05-09 08:03:00,
2013-05-09 03:04:00,67.8,58.8,-100.00,South,173,7.0,14.0,73,0.00,,,0.00,meteohub,2013-05-09 08:04:00,
2013-05-09 03:05:00,67.8,58.8,-100.00,South,183,4.0,14.0,73,0.00,,,0.00,meteohub,2013-05-09 08:05:00,
2013-05-09 03:09:00,67.8,58.8,-100.00,SSW,196,4.0,13.0,73,0.00,,,0.00,meteohub,2013-05-09 08:09:00,
2013-05-09 03:10:00,67.8,58.8,-100.00,South,191,5.0,13.0,73,0.00,,,0.00,meteohub,2013-05-09 08:10:00,
2013-05-09 03:11:00,67.8,58.8,-100.00,South,185,9.0,15.0,73,0.00,,,0.00,meteohub,2013-05-09 08:11:00,
2013-05-09 03:14:00,67.6,59.0,-100.00,South,179,7.0,15.0,74,0.00,,,0.00,meteohub,2013-05-09 08:14:00,
2013-05-09 03:15:00,67.6,59.0,-100.00,SSW,197,14.0,15.0,74,0.00,,,0.00,meteohub,2013-05-09 08:15:00,
2013-05-09 03:16:00,67.6,59.0,-100.00,SSW,193,9.0,15.0,74,0.00,,,0.00,meteohub,2013-05-09 08:16:00,
2013-05-09 03:19:00,67.6,59.0,-100.00,South,171,12.0,15.0,74,0.00,,,0.00,meteohub,2013-05-09 08:19:00,
2013-05-09 03:20:00,67.6,59.0,-100.00,South,186,8.0,15.0,74,0.00,,,0.00,meteohub,2013-05-09 08:20:00,
2013-05-09 03:21:00,67.6,59.0,-100.00,SSW,194,7.0,15.0,74,0.00,,,0.00,meteohub,2013-05-09 08:21:00,
2013-05-09 03:22:00,67.6,59.0,-100.00,South,184,8.0,15.0,74,0.00,,,0.00,meteohub,2013-05-09 08:22:00,
2013-05-09 03:24:00,67.6,59.0,-100.00,South,169,10.0,15.0,74,0.00,,,0.00,meteohub,2013-05-09 08:24:00,
2013-05-09 03:26:00,67.6,59.4,-100.00,South,182,5.0,17.0,75,0.00,,,0.00,meteohub,2013-05-09 08:26:00,
2013-05-09 03:27:00,67.6,59.4,-100.00,South,173,5.0,17.0,75,0.00,,,0.00,meteohub,2013-05-09 08:27:00,
2013-05-09 03:30:00,67.5,59.2,-100.00,South,188,1.0,17.0,75,0.00,,,0.00,meteohub,2013-05-09 08:30:00,
2013-05-09 03:31:00,67.5,58.1,-100.00,SSW,197,6.0,17.0,72,0.00,,,0.00,meteohub,2013-05-09 08:31:00,
2013-05-09 03:32:00,67.5,59.2,-100.00,South,178,6.0,17.0,75,0.00,,,0.00,meteohub,2013-05-09 08:32:00,
2013-05-09 03:35:00,67.5,59.2,-100.00,SSW,196,12.0,19.0,75,0.00,,,0.00,meteohub,2013-05-09 08:35:00,
2013-05-09 03:36:00,67.5,59.2,-100.00,SSW,192,2.0,19.0,75,0.00,,,0.00,meteohub,2013-05-09 08:36:00,
2013-05-09 03:37:00,67.5,59.2,-100.00,SSW,198,8.0,19.0,75,0.00,,,0.00,meteohub,2013-05-09 08:37:00,
2013-05-09 03:39:00,67.3,59.5,-100.00,South,182,12.0,19.0,76,0.00,,,0.00,meteohub,2013-05-09 08:39:00,
2013-05-09 03:41:00,67.3,59.5,-100.00,South,190,3.0,19.0,76,0.00,,,0.00,meteohub,2013-05-09 08:41:00,
2013-05-09 03:42:00,67.3,59.5,-100.00,SSW,197,5.0,19.0,76,0.00,,,0.00,meteohub,2013-05-09 08:42:00,
2013-05-09 03:43:00,67.3,59.5,-100.00,SSW,196,9.0,19.0,76,0.00,,,0.00,meteohub,2013-05-09 08:43:00,
2013-05-09 03:44:00,67.3,59.5,-100.00,South,190,4.0,19.0,76,0.00,,,0.00,meteohub,2013-05-09 08:44:00,
2013-05-09 03:46:00,67.3,59.5,-100.00,South,188,8.0,19.0,76,0.00,,,0.00,meteohub,2013-05-09 08:46:00,
2013-05-09 03:48:00,67.3,59.5,-100.00,SSW,194,6.0,19.0,76,0.00,,,0.00,meteohub,2013-05-09 08:48:00,
2013-05-09 03:50:00,67.1,59.4,-100.00,SSW,201,9.0,19.0,76,0.00,,,0.00,meteohub,2013-05-09 08:50:00,
2013-05-09 03:51:00,67.1,59.7,-100.00,South,186,14.0,17.0,77,0.00,,,0.00,meteohub,2013-05-09 08:51:00,
2013-05-09 03:53:00,67.1,59.7,-100.00,South,191,6.0,17.0,77,0.00,,,0.00,meteohub,2013-05-09 08:53:00,
2013-05-09 03:55:00,67.1,59.7,-100.00,SSW,201,7.0,17.0,77,0.00,,,0.00,meteohub,2013-05-09 08:55:00,
2013-05-09 03:57:00,67.1,59.7,-100.00,SSW,194,3.0,18.0,77,0.00,,,0.00,meteohub,2013-05-09 08:57:00,
2013-05-09 03:59:00,66.9,59.5,-100.00,SSW,192,4.0,18.0,77,0.00,,,0.00,meteohub,2013-05-09 08:59:00,
2013-05-09 04:00:00,66.9,59.5,-100.00,South,189,5.0,18.0,77,0.00,,,0.00,meteohub,2013-05-09 09:00:00,
2013-05-09 04:02:00,66.9,59.5,-100.00,South,189,9.0,18.0,77,0.00,,,0.00,meteohub,2013-05-09 09:02:00,
2013-05-09 04:04:00,66.9,59.5,-100.00,SSW,194,7.0,18.0,77,0.00,,,0.00,meteohub,2013-05-09 09:04:00,
2013-05-09 04:05:00,66.7,59.4,-100.00,SSE,167,10.0,18.0,77,0.00,,,0.00,meteohub,2013-05-09 09:05:00,
2013-05-09 04:07:00,66.7,59.7,-100.00,South,179,4.0,18.0,78,0.00,,,0.00,meteohub,2013-05-09 09:07:00,
2013-05-09 04:10:00,66.7,59.7,-100.00,South,190,7.0,18.0,78,0.00,,,0.00,meteohub,2013-05-09 09:10:00,
2013-05-09 04:13:00,66.6,59.5,-100.00,South,182,5.0,17.0,78,0.00,,,0.00,meteohub,2013-05-09 09:13:00,
2013-05-09 04:15:00,66.6,59.5,-100.00,South,177,12.0,17.0,78,0.00,,,0.00,meteohub,2013-05-09 09:15:00,
2013-05-09 04:16:00,66.6,59.5,-100.00,South,189,4.0,17.0,78,0.00,,,0.00,meteohub,2013-05-09 09:16:00,
2013-05-09 04:18:00,66.6,59.5,-100.00,SSW,192,6.0,17.0,78,0.00,,,0.00,meteohub,2013-05-09 09:18:00,
2013-05-09 04:20:00,66.6,59.5,-100.00,South,184,11.0,17.0,78,0.00,,,0.00,meteohub,2013-05-09 09:20:00,
2013-05-09 04:21:00,66.6,59.5,-100.00,South,178,6.0,12.0,78,0.00,,,0.00,meteohub,2013-05-09 09:21:00,
2013-05-09 04:23:00,66.6,59.5,-100.00,South,180,7.0,12.0,78,0.00,,,0.00,meteohub,2013-05-09 09:23:00,
2013-05-09 04:24:00,66.4,59.4,-100.00,South,187,7.0,12.0,78,0.00,,,0.00,meteohub,2013-05-09 09:24:00,
2013-05-09 04:25:00,66.4,59.4,-100.00,South,180,6.0,12.0,78,0.00,,,0.00,meteohub,2013-05-09 09:25:00,
2013-05-09 04:26:00,66.4,59.4,-100.00,South,174,4.0,12.0,78,0.00,,,0.00,meteohub,2013-05-09 09:26:00,
2013-05-09 04:29:00,66.4,59.7,-100.00,South,183,2.0,12.0,79,0.00,,,0.00,meteohub,2013-05-09 09:29:00,
2013-05-09 04:30:00,66.4,59.7,-100.00,South,181,3.0,12.0,79,0.00,,,0.00,meteohub,2013-05-09 09:30:00,
2013-05-09 04:31:00,66.4,59.7,-100.00,South,181,6.0,11.0,79,0.00,,,0.00,meteohub,2013-05-09 09:31:00,
2013-05-09 04:34:00,66.4,59.7,-100.00,South,180,4.0,11.0,79,0.00,,,0.00,meteohub,2013-05-09 09:34:00,
2013-05-09 04:35:00,66.4,59.7,-100.00,South,180,5.0,11.0,79,0.00,,,0.00,meteohub,2013-05-09 09:35:00,
2013-05-09 04:36:00,66.4,59.7,-100.00,South,175,4.0,11.0,79,0.00,,,0.00,meteohub,2013-05-09 09:36:00,
2013-05-09 04:40:00,66.0,59.4,-100.00,South,178,1.0,11.0,79,0.00,,,0.00,meteohub,2013-05-09 09:40:00,
2013-05-09 04:41:00,66.0,59.4,-100.00,South,176,7.0,11.0,79,0.00,,,0.00,meteohub,2013-05-09 09:41:00,
2013-05-09 04:42:00,66.0,59.4,-100.00,South,176,3.0,11.0,79,0.00,,,0.00,meteohub,2013-05-09 09:42:00,
2013-05-09 04:45:00,66.0,59.7,-100.00,South,179,5.0,11.0,80,0.00,,,0.00,meteohub,2013-05-09 09:45:00,
2013-05-09 04:46:00,66.0,59.7,-100.00,South,182,3.0,11.0,80,0.00,,,0.00,meteohub,2013-05-09 09:46:00,
2013-05-09 04:47:00,66.0,59.7,-100.00,South,182,4.0,11.0,80,0.00,,,0.00,meteohub,2013-05-09 09:47:00,
2013-05-09 04:50:00,66.0,59.7,-100.00,South,184,4.0,11.0,80,0.00,,,0.00,meteohub,2013-05-09 09:50:00,
2013-05-09 04:52:00,66.0,59.7,-100.00,South,183,4.0,11.0,80,0.00,,,0.00,meteohub,2013-05-09 09:52:00,
2013-05-09 04:55:00,65.8,59.5,-100.00,South,177,5.0,11.0,80,0.00,,,0.00,meteohub,2013-05-09 09:55:00,
2013-05-09 04:57:00,65.8,59.5,-100.00,South,179,4.0,11.0,80,0.00,,,0.00,meteohub,2013-05-09 09:57:00,
2013-05-09 04:58:00,65.8,59.5,-100.00,South,175,3.0,11.0,80,0.00,,,0.00,meteohub,2013-05-09 09:58:00,
2013-05-09 05:00:00,65.7,59.7,-100.00,South,172,4.0,11.0,81,0.00,,,0.00,meteohub,2013-05-09 10:00:00,
2013-05-09 05:02:00,65.7,59.7,-100.00,South,172,4.0,11.0,81,0.00,,,0.00,meteohub,2013-05-09 10:02:00,
2013-05-09 05:03:00,65.7,59.7,-100.00,South,179,7.0,11.0,81,0.00,,,0.00,meteohub,2013-05-09 10:03:00,
2013-05-09 05:05:00,65.7,59.7,-100.00,South,178,5.0,11.0,81,0.00,,,0.00,meteohub,2013-05-09 10:05:00,
2013-05-09 05:07:00,65.7,59.7,-100.00,South,175,6.0,11.0,81,0.00,,,0.00,meteohub,2013-05-09 10:07:00,
2013-05-09 05:08:00,65.5,59.5,-100.00,South,175,3.0,11.0,81,0.00,,,0.00,meteohub,2013-05-09 10:08:00,
2013-05-09 05:11:00,65.5,59.5,-100.00,South,176,3.0,10.0,81,0.00,,,0.00,meteohub,2013-05-09 10:11:00,
2013-05-09 05:13:00,65.5,59.5,-100.00,South,176,3.0,10.0,81,0.00,,,0.00,meteohub,2013-05-09 10:13:00,
2013-05-09 05:14:00,65.5,59.9,-100.00,South,174,4.0,10.0,82,0.00,,,0.00,meteohub,2013-05-09 10:14:00,
2013-05-09 05:16:00,65.3,59.7,-100.00,South,173,5.0,10.0,82,0.00,,,0.00,meteohub,2013-05-09 10:16:00,
2013-05-09 05:18:00,65.3,59.7,-100.00,South,173,2.0,10.0,82,0.00,,,0.00,meteohub,2013-05-09 10:18:00,
2013-05-09 05:19:00,65.3,59.7,-100.00,South,173,4.0,10.0,82,0.00,,,0.00,meteohub,2013-05-09 10:19:00,
2013-05-09 05:22:00,65.3,59.7,-100.00,South,174,2.0,9.0,82,0.00,,,0.00,meteohub,2013-05-09 10:22:00,
2013-05-09 05:23:00,65.5,59.9,-100.00,South,175,4.0,9.0,82,0.00,,,0.00,meteohub,2013-05-09 10:23:00,
2013-05-09 05:24:00,65.5,59.9,-100.00,South,177,7.0,9.0,82,0.00,,,0.00,meteohub,2013-05-09 10:24:00,
2013-05-09 05:25:00,65.5,59.9,-100.00,South,177,5.0,9.0,82,0.00,,,0.00,meteohub,2013-05-09 10:25:00,
2013-05-09 05:27:00,65.5,59.9,-100.00,South,178,4.0,9.0,82,0.00,,,0.00,meteohub,2013-05-09 10:27:00,
2013-05-09 05:28:00,65.5,59.9,-100.00,South,176,4.0,9.0,82,0.00,,,0.00,meteohub,2013-05-09 10:28:00,
2013-05-09 05:29:00,65.5,59.9,-100.00,South,176,4.0,9.0,82,0.00,,,0.00,meteohub,2013-05-09 10:29:00,
2013-05-09 05:30:00,65.5,59.9,-100.00,South,175,5.0,9.0,82,0.00,,,0.00,meteohub,2013-05-09 10:30:00,
2013-05-09 05:32:00,65.7,60.1,-100.00,South,173,4.0,10.0,82,0.00,,,0.00,meteohub,2013-05-09 10:32:00,
2013-05-09 05:34:00,65.7,60.1,-100.00,South,180,3.0,10.0,82,0.00,,,0.00,meteohub,2013-05-09 10:34:00,
2013-05-09 05:35:00,65.7,60.1,-100.00,South,175,6.0,10.0,82,0.00,,,0.00,meteohub,2013-05-09 10:35:00,
2013-05-09 05:39:00,65.7,60.1,-100.00,South,181,6.0,10.0,82,0.00,,,0.00,meteohub,2013-05-09 10:39:00,
2013-05-09 05:40:00,65.7,60.1,-100.00,South,181,4.0,10.0,82,0.00,,,0.00,meteohub,2013-05-09 10:40:00,
2013-05-09 05:44:00,65.7,60.1,-100.00,South,182,2.0,11.0,82,0.00,,,0.00,meteohub,2013-05-09 10:44:00,
2013-05-09 05:45:00,65.7,60.1,-100.00,SSW,198,5.0,11.0,82,0.00,,,0.00,meteohub,2013-05-09 10:45:00,
2013-05-09 05:49:00,65.8,60.3,-100.00,South,176,6.0,11.0,82,0.00,,,0.00,meteohub,2013-05-09 10:49:00,
2013-05-09 05:50:00,65.8,60.3,-100.00,South,183,9.0,11.0,82,0.00,,,0.00,meteohub,2013-05-09 10:50:00,
2013-05-09 05:54:00,65.8,60.3,-100.00,South,182,3.0,11.0,82,0.00,,,0.00,meteohub,2013-05-09 10:54:00,
2013-05-09 05:55:00,65.8,60.3,-100.00,South,182,5.0,11.0,82,0.00,,,0.00,meteohub,2013-05-09 10:55:00,
2013-05-09 05:56:00,65.8,60.3,-100.00,South,182,5.0,11.0,82,0.00,,,0.00,meteohub,2013-05-09 10:56:00,
2013-05-09 06:00:00,66.0,60.4,-100.00,SSE,166,6.0,11.0,82,0.00,,,0.00,meteohub,2013-05-09 11:00:00,
2013-05-09 06:01:00,66.0,60.4,-100.00,South,181,9.0,13.0,82,0.00,,,0.00,meteohub,2013-05-09 11:01:00,
2013-05-09 06:02:00,66.0,60.4,-100.00,South,180,4.0,13.0,82,0.00,,,0.00,meteohub,2013-05-09 11:02:00,
2013-05-09 06:05:00,66.0,60.4,-100.00,SSE,163,1.0,13.0,82,0.00,,,0.00,meteohub,2013-05-09 11:05:00,
2013-05-09 06:06:00,66.0,60.4,-100.00,SSE,163,4.0,13.0,82,0.00,,,0.00,meteohub,2013-05-09 11:06:00,
2013-05-09 06:07:00,66.0,60.4,-100.00,SSE,163,4.0,13.0,82,0.00,,,0.00,meteohub,2013-05-09 11:07:00,
2013-05-09 06:11:00,66.0,60.4,-100.00,SSE,165,3.0,13.0,82,0.00,,,0.00,meteohub,2013-05-09 11:11:00,
2013-05-09 06:12:00,66.0,60.4,-100.00,SSE,165,4.0,13.0,82,0.00,,,0.00,meteohub,2013-05-09 11:12:00,
2013-05-09 06:13:00,66.0,60.4,-100.00,SSE,166,5.0,13.0,82,0.00,,,0.00,meteohub,2013-05-09 11:13:00,
2013-05-09 06:16:00,66.0,60.4,-100.00,SSE,167,8.0,13.0,82,0.00,,,0.00,meteohub,2013-05-09 11:16:00,
2013-05-09 06:18:00,66.0,60.4,-100.00,SSE,163,3.0,13.0,82,0.00,,,0.00,meteohub,2013-05-09 11:18:00,
2013-05-09 06:22:00,66.0,60.4,-100.00,SSE,163,2.0,11.0,82,0.00,,,0.00,meteohub,2013-05-09 11:22:00,
2013-05-09 06:23:00,66.0,60.4,-100.00,South,173,2.0,11.0,82,0.00,,,0.00,meteohub,2013-05-09 11:23:00,
2013-05-09 06:24:00,66.0,60.4,-100.00,South,173,4.0,11.0,82,0.00,,,0.00,meteohub,2013-05-09 11:24:00,
2013-05-09 06:27:00,66.4,60.4,-100.00,South,179,4.0,11.0,81,0.00,,,0.00,meteohub,2013-05-09 11:27:00,
2013-05-09 06:28:00,66.4,60.4,-100.00,South,175,5.0,11.0,81,0.00,,,0.00,meteohub,2013-05-09 11:28:00,
2013-05-09 06:31:00,66.4,60.4,-100.00,South,172,2.0,11.0,81,0.00,,,0.00,meteohub,2013-05-09 11:31:00,
2013-05-09 06:32:00,66.4,60.4,-100.00,South,172,4.0,11.0,81,0.00,,,0.00,meteohub,2013-05-09 11:32:00,
2013-05-09 06:33:00,66.4,60.4,-100.00,South,171,7.0,11.0,81,0.00,,,0.00,meteohub,2013-05-09 11:33:00,
2013-05-09 06:34:00,66.4,60.4,-100.00,South,173,6.0,11.0,81,0.00,,,0.00,meteohub,2013-05-09 11:34:00,
2013-05-09 06:37:00,66.4,60.4,-100.00,South,175,8.0,10.0,81,0.00,,,0.00,meteohub,2013-05-09 11:37:00,
2013-05-09 06:38:00,66.4,60.4,-100.00,South,173,4.0,10.0,81,0.00,,,0.00,meteohub,2013-05-09 11:38:00,
2013-05-09 06:42:00,66.4,60.4,-100.00,South,173,6.0,12.0,81,0.00,,,0.00,meteohub,2013-05-09 11:42:00,
2013-05-09 06:43:00,66.4,60.4,-100.00,South,173,3.0,12.0,81,0.00,,,0.00,meteohub,2013-05-09 11:43:00,
2013-05-09 06:48:00,66.4,60.4,-100.00,SSE,166,9.0,12.0,81,0.00,,,0.00,meteohub,2013-05-09 11:48:00,
2013-05-09 06:49:00,66.4,60.4,-100.00,SSE,165,6.0,12.0,81,0.00,,,0.00,meteohub,2013-05-09 11:49:00,
2013-05-09 06:53:00,66.4,60.4,-100.00,SSE,166,9.0,12.0,81,0.00,,,0.00,meteohub,2013-05-09 11:53:00,
2013-05-09 06:54:00,66.4,60.4,-100.00,SSE,167,7.0,12.0,81,0.00,,,0.00,meteohub,2013-05-09 11:54:00,
2013-05-09 06:58:00,66.4,60.4,-100.00,SSE,164,5.0,11.0,81,0.00,,,0.00,meteohub,2013-05-09 11:58:00,
2013-05-09 06:59:00,66.4,60.4,-100.00,SSE,165,5.0,11.0,81,0.00,,,0.00,meteohub,2013-05-09 11:59:00,
2013-05-09 07:00:00,66.4,60.4,-100.00,SSE,160,10.0,11.0,81,0.00,,,0.00,meteohub,2013-05-09 12:00:00,
2013-05-09 07:01:00,66.4,60.4,-100.00,South,171,4.0,11.0,81,0.00,,,0.00,meteohub,2013-05-09 12:01:00,
2013-05-09 07:04:00,66.4,60.4,-100.00,South,170,3.0,11.0,81,0.00,,,0.00,meteohub,2013-05-09 12:04:00,
2013-05-09 07:05:00,66.4,60.4,-100.00,South,170,3.0,11.0,81,0.00,,,0.00,meteohub,2013-05-09 12:05:00,
2013-05-09 07:06:00,66.4,60.4,-100.00,South,170,3.0,11.0,81,0.00,,,0.00,meteohub,2013-05-09 12:06:00,
2013-05-09 07:09:00,66.4,60.4,-100.00,SSE,150,4.0,11.0,81,0.00,,,0.00,meteohub,2013-05-09 12:09:00,
2013-05-09 07:10:00,66.4,60.4,-100.00,SSE,150,5.0,11.0,81,0.00,,,0.00,meteohub,2013-05-09 12:10:00,
2013-05-09 07:12:00,66.4,60.4,-100.00,SSE,160,5.0,11.0,81,0.00,,,0.00,meteohub,2013-05-09 12:12:00,
2013-05-09 07:14:00,66.4,60.4,-100.00,South,170,7.0,11.0,81,0.00,,,0.00,meteohub,2013-05-09 12:14:00,
2013-05-09 07:15:00,66.6,60.6,-100.00,South,171,4.0,11.0,81,0.00,,,0.00,meteohub,2013-05-09 12:15:00,
2013-05-09 07:17:00,66.6,60.6,-100.00,South,174,5.0,11.0,81,0.00,,,0.00,meteohub,2013-05-09 12:17:00,
2013-05-09 07:19:00,66.6,60.6,-100.00,South,182,12.0,12.0,81,0.00,,,0.00,meteohub,2013-05-09 12:19:00,
2013-05-09 07:20:00,66.6,60.6,-100.00,South,177,5.0,11.0,81,0.00,,,0.00,meteohub,2013-05-09 12:20:00,
2013-05-09 07:21:00,66.6,60.6,-100.00,South,174,8.0,11.0,81,0.00,,,0.00,meteohub,2013-05-09 12:21:00,
2013-05-09 07:22:00,66.6,60.6,-100.00,South,172,6.0,11.0,81,0.00,,,0.00,meteohub,2013-05-09 12:22:00,
2013-05-09 07:24:00,66.6,60.6,-100.00,South,172,2.0,11.0,81,0.00,,,0.00,meteohub,2013-05-09 12:24:00,
2013-05-09 07:25:00,66.7,60.8,-100.00,South,173,6.0,14.0,81,0.00,,,0.00,meteohub,2013-05-09 12:25:00,
2013-05-09 07:26:00,66.7,60.8,-100.00,South,171,6.0,14.0,81,0.00,,,0.00,meteohub,2013-05-09 12:26:00,
2013-05-09 07:28:00,66.7,60.8,-100.00,South,171,5.0,14.0,81,0.00,,,0.00,meteohub,2013-05-09 12:28:00,
2013-05-09 07:31:00,66.7,60.8,-100.00,South,175,6.0,14.0,81,0.00,,,0.00,meteohub,2013-05-09 12:31:00,
2013-05-09 07:33:00,66.9,61.0,-100.00,SSE,165,11.0,14.0,81,0.00,,,0.00,meteohub,2013-05-09 12:33:00,
2013-05-09 07:36:00,66.9,61.0,-100.00,SSE,164,9.0,12.0,81,0.00,,,0.00,meteohub,2013-05-09 12:36:00,
2013-05-09 07:37:00,66.9,61.0,-100.00,South,169,6.0,12.0,81,0.00,,,0.00,meteohub,2013-05-09 12:37:00,
2013-05-09 07:38:00,67.1,61.2,-100.00,South,169,4.0,12.0,81,0.00,,,0.00,meteohub,2013-05-09 12:38:00,
2013-05-09 07:41:00,67.1,61.2,-100.00,SSE,163,3.0,12.0,81,0.00,,,0.00,meteohub,2013-05-09 12:41:00,
2013-05-09 07:42:00,67.1,61.2,-100.00,SSE,163,4.0,12.0,81,0.00,,,0.00,meteohub,2013-05-09 12:42:00,
2013-05-09 07:43:00,67.1,61.2,-100.00,SSE,163,4.0,12.0,81,0.00,,,0.00,meteohub,2013-05-09 12:43:00,
2013-05-09 07:46:00,67.3,61.2,-100.00,SSE,163,6.0,12.0,81,0.00,,,0.00,meteohub,2013-05-09 12:46:00,
2013-05-09 07:47:00,67.3,61.2,-100.00,SSE,161,5.0,12.0,81,0.00,,,0.00,meteohub,2013-05-09 12:47:00,
2013-05-09 07:48:00,67.3,61.2,-100.00,SSE,165,4.0,12.0,81,0.00,,,0.00,meteohub,2013-05-09 12:48:00,
2013-05-09 07:49:00,67.3,61.2,-100.00,SSE,165,6.0,12.0,81,0.00,,,0.00,meteohub,2013-05-09 12:49:00,
2013-05-09 07:51:00,67.3,61.2,-100.00,SSE,167,6.0,10.0,81,0.00,,,0.00,meteohub,2013-05-09 12:51:00,
2013-05-09 07:52:00,67.3,61.2,-100.00,SSE,165,4.0,10.0,81,0.00,,,0.00,meteohub,2013-05-09 12:52:00,
2013-05-09 07:53:00,67.3,61.2,-100.00,SSE,164,5.0,10.0,81,0.00,,,0.00,meteohub,2013-05-09 12:53:00,
2013-05-09 07:54:00,67.3,61.2,-100.00,SSE,164,4.0,10.0,81,0.00,,,0.00,meteohub,2013-05-09 12:54:00,
2013-05-09 07:56:00,67.5,61.3,-100.00,SSE,160,5.0,10.0,81,0.00,,,0.00,meteohub,2013-05-09 12:56:00,
2013-05-09 07:58:00,67.5,61.3,-100.00,SSE,159,6.0,10.0,81,0.00,,,0.00,meteohub,2013-05-09 12:58:00,
2013-05-09 07:59:00,67.5,61.3,-100.00,SSE,165,7.0,10.0,81,0.00,,,0.00,meteohub,2013-05-09 12:59:00,
2013-05-09 08:01:00,67.5,61.3,-100.00,SSE,158,6.0,11.0,81,0.00,,,0.00,meteohub,2013-05-09 13:01:00,
2013-05-09 08:02:00,67.5,61.3,-100.00,SSE,158,4.0,11.0,81,0.00,,,0.00,meteohub,2013-05-09 13:02:00,
2013-05-09 08:03:00,67.5,61.3,-100.00,SSE,159,5.0,11.0,81,0.00,,,0.00,meteohub,2013-05-09 13:03:00,
2013-05-09 08:04:00,67.5,61.3,-100.00,South,169,4.0,11.0,81,0.00,,,0.00,meteohub,2013-05-09 13:04:00,
2013-05-09 08:06:00,67.5,61.3,-100.00,SSE,163,5.0,11.0,81,0.00,,,0.00,meteohub,2013-05-09 13:06:00,
2013-05-09 08:07:00,67.5,61.3,-100.00,SSE,164,6.0,11.0,81,0.00,,,0.00,meteohub,2013-05-09 13:07:00,
2013-05-09 08:08:00,67.5,61.3,-100.00,SSE,167,6.0,11.0,81,0.00,,,0.00,meteohub,2013-05-09 13:08:00,
2013-05-09 08:09:00,67.5,61.3,-100.00,SSE,158,11.0,11.0,81,0.00,,,0.00,meteohub,2013-05-09 13:09:00,
2013-05-09 08:10:00,67.5,61.3,-100.00,South,169,12.0,12.0,81,0.00,,,0.00,meteohub,2013-05-09 13:10:00,
2013-05-09 08:12:00,67.5,61.3,-100.00,SSE,167,4.0,11.0,81,0.00,,,0.00,meteohub,2013-05-09 13:12:00,
2013-05-09 08:13:00,67.6,61.5,-100.00,South,170,10.0,11.0,81,0.00,,,0.00,meteohub,2013-05-09 13:13:00,
2013-05-09 08:15:00,67.6,61.5,-100.00,SSE,164,10.0,11.0,81,0.00,,,0.00,meteohub,2013-05-09 13:15:00,
2013-05-09 08:16:00,67.6,61.5,-100.00,South,175,6.0,13.0,81,0.00,,,0.00,meteohub,2013-05-09 13:16:00,
2013-05-09 08:17:00,67.6,61.5,-100.00,South,174,3.0,13.0,81,0.00,,,0.00,meteohub,2013-05-09 13:17:00,
2013-05-09 08:20:00,67.8,61.7,-100.00,South,173,5.0,13.0,81,0.00,,,0.00,meteohub,2013-05-09 13:20:00,
2013-05-09 08:21:00,67.8,61.7,-100.00,South,175,2.0,13.0,81,0.00,,,0.00,meteohub,2013-05-09 13:21:00,
2013-05-09 08:22:00,67.8,61.7,-100.00,South,183,5.0,13.0,81,0.00,,,0.00,meteohub,2013-05-09 13:22:00,
2013-05-09 08:23:00,67.8,61.7,-100.00,South,184,9.0,13.0,81,0.00,,,0.00,meteohub,2013-05-09 13:23:00,
2013-05-09 08:25:00,67.8,61.7,-100.00,South,177,7.0,13.0,81,0.00,,,0.00,meteohub,2013-05-09 13:25:00,
2013-05-09 08:26:00,67.8,61.7,-100.00,SSE,158,6.0,12.0,81,0.00,,,0.00,meteohub,2013-05-09 13:26:00,
2013-05-09 08:27:00,67.8,61.7,-100.00,South,170,7.0,12.0,81,0.00,,,0.00,meteohub,2013-05-09 13:27:00,
2013-05-09 08:28:00,67.8,61.7,-100.00,SSE,167,8.0,12.0,81,0.00,,,0.00,meteohub,2013-05-09 13:28:00,
2013-05-09 08:30:00,68.2,62.1,-100.00,SSE,165,7.0,12.0,81,0.00,,,0.00,meteohub,2013-05-09 13:30:00,
2013-05-09 08:31:00,68.2,62.1,-100.00,South,173,5.0,12.0,81,0.00,,,0.00,meteohub,2013-05-09 13:31:00,
2013-05-09 08:32:00,68.2,62.1,-100.00,South,185,6.0,12.0,81,0.00,,,0.00,meteohub,2013-05-09 13:32:00,
2013-05-09 08:33:00,68.2,62.1,-100.00,South,184,6.0,12.0,81,0.00,,,0.00,meteohub,2013-05-09 13:33:00,
2013-05-09 08:36:00,68.4,62.2,-100.00,South,169,4.0,12.0,81,0.00,,,0.00,meteohub,2013-05-09 13:36:00,
2013-05-09 08:37:00,68.4,62.2,-100.00,South,175,6.0,12.0,81,0.00,,,0.00,meteohub,2013-05-09 13:37:00,
2013-05-09 08:38:00,68.4,62.2,-100.00,South,174,9.0,12.0,81,0.00,,,0.00,meteohub,2013-05-09 13:38:00,
2013-05-09 08:41:00,68.4,62.2,-100.00,South,179,10.0,14.0,81,0.00,,,0.00,meteohub,2013-05-09 13:41:00,
2013-05-09 08:42:00,68.4,62.2,-100.00,South,186,11.0,14.0,81,0.00,,,0.00,meteohub,2013-05-09 13:42:00,
2013-05-09 08:43:00,68.4,62.2,-100.00,South,188,4.0,14.0,81,0.00,,,0.00,meteohub,2013-05-09 13:43:00,
2013-05-09 08:44:00,68.4,62.2,-100.00,South,175,7.0,14.0,81,0.00,,,0.00,meteohub,2013-05-09 13:44:00,
2013-05-09 08:46:00,68.4,62.2,-100.00,South,175,8.0,14.0,81,0.00,,,0.00,meteohub,2013-05-09 13:46:00,
2013-05-09 08:47:00,68.4,62.2,-100.00,South,170,7.0,14.0,81,0.00,,,0.00,meteohub,2013-05-09 13:47:00,
2013-05-09 08:48:00,68.4,62.2,-100.00,SSE,168,12.0,14.0,81,0.00,,,0.00,meteohub,2013-05-09 13:48:00,
2013-05-09 08:51:00,68.4,62.2,-100.00,South,169,9.0,14.0,81,0.00,,,0.00,meteohub,2013-05-09 13:51:00,
2013-05-09 08:52:00,68.5,62.4,-100.00,South,169,5.0,14.0,81,0.00,,,0.00,meteohub,2013-05-09 13:52:00,
2013-05-09 08:53:00,68.5,62.4,-100.00,SSE,168,4.0,14.0,81,0.00,,,0.00,meteohub,2013-05-09 13:53:00,
2013-05-09 08:54:00,68.5,62.4,-100.00,SSE,168,5.0,14.0,81,0.00,,,0.00,meteohub,2013-05-09 13:54:00,
2013-05-09 08:56:00,68.5,62.4,-100.00,SSW,194,4.0,14.0,81,0.00,,,0.00,meteohub,2013-05-09 13:56:00,
2013-05-09 08:57:00,68.5,62.4,-100.00,South,169,5.0,14.0,81,0.00,,,0.00,meteohub,2013-05-09 13:57:00,
2013-05-09 08:58:00,68.5,62.4,-100.00,SSE,168,10.0,14.0,81,0.00,,,0.00,meteohub,2013-05-09 13:58:00,
2013-05-09 08:59:00,68.5,62.4,-100.00,South,173,7.0,14.0,81,0.00,,,0.00,meteohub,2013-05-09 13:59:00,
2013-05-09 09:00:00,68.5,62.4,-100.00,SSE,167,7.0,14.0,81,0.00,,,0.00,meteohub,2013-05-09 14:00:00,
2013-05-09 09:01:00,68.5,62.4,-100.00,South,169,4.0,14.0,81,0.00,,,0.00,meteohub,2013-05-09 14:01:00,
2013-05-09 09:02:00,68.7,62.6,-100.00,South,169,3.0,14.0,81,0.00,,,0.00,meteohub,2013-05-09 14:02:00,
2013-05-09 09:04:00,68.7,62.6,-100.00,South,178,3.0,14.0,81,0.00,,,0.00,meteohub,2013-05-09 14:04:00,
2013-05-09 09:05:00,68.7,62.6,-100.00,South,169,5.0,14.0,81,0.00,,,0.00,meteohub,2013-05-09 14:05:00,
2013-05-09 09:06:00,68.7,62.6,-100.00,South,177,5.0,14.0,81,0.00,,,0.00,meteohub,2013-05-09 14:06:00,
2013-05-09 09:07:00,68.7,62.6,-100.00,South,170,4.0,14.0,81,0.00,,,0.00,meteohub,2013-05-09 14:07:00,
2013-05-09 09:09:00,68.7,62.6,-100.00,South,182,4.0,14.0,81,0.00,,,0.00,meteohub,2013-05-09 14:09:00,
2013-05-09 09:10:00,68.7,62.6,-100.00,SSE,168,10.0,14.0,81,0.00,,,0.00,meteohub,2013-05-09 14:10:00,
2013-05-09 09:12:00,68.9,62.8,-100.00,SSE,155,5.0,14.0,81,0.00,,,0.00,meteohub,2013-05-09 14:12:00,
2013-05-09 09:14:00,68.9,62.8,-100.00,SSE,153,5.0,14.0,81,0.00,,,0.00,meteohub,2013-05-09 14:14:00,
2013-05-09 09:15:00,68.9,62.8,-100.00,SSE,157,6.0,14.0,81,0.00,,,0.00,meteohub,2013-05-09 14:15:00,
2013-05-09 09:16:00,68.9,62.8,-100.00,SSE,148,9.0,14.0,81,0.00,,,0.00,meteohub,2013-05-09 14:16:00,
2013-05-09 09:17:00,68.9,62.8,-100.00,SSE,168,9.0,14.0,81,0.00,,,0.00,meteohub,2013-05-09 14:17:00,
2013-05-09 09:18:00,68.9,62.8,-100.00,South,171,9.0,14.0,81,0.00,,,0.00,meteohub,2013-05-09 14:18:00,
2013-05-09 09:19:00,68.9,62.8,-100.00,South,170,5.0,14.0,81,0.00,,,0.00,meteohub,2013-05-09 14:19:00,
2013-05-09 09:20:00,68.9,62.8,-100.00,SSE,165,6.0,14.0,81,0.00,,,0.00,meteohub,2013-05-09 14:20:00,
2013-05-09 09:21:00,68.9,62.8,-100.00,SSE,167,6.0,14.0,81,0.00,,,0.00,meteohub,2013-05-09 14:21:00,
2013-05-09 09:22:00,69.1,63.0,-100.00,South,176,9.0,14.0,81,0.00,,,0.00,meteohub,2013-05-09 14:22:00,
2013-05-09 09:24:00,69.1,63.0,-100.00,South,180,5.0,14.0,81,0.00,,,0.00,meteohub,2013-05-09 14:24:00,
2013-05-09 09:25:00,69.1,63.0,-100.00,SSE,168,8.0,14.0,81,0.00,,,0.00,meteohub,2013-05-09 14:25:00,
2013-05-09 09:27:00,69.1,63.0,-100.00,South,180,5.0,15.0,81,0.00,,,0.00,meteohub,2013-05-09 14:27:00,
2013-05-09 09:29:00,69.1,63.0,-100.00,SSE,161,7.0,15.0,81,0.00,,,0.00,meteohub,2013-05-09 14:29:00,
2013-05-09 09:30:00,69.1,63.0,-100.00,SSE,166,12.0,16.0,81,0.00,,,0.00,meteohub,2013-05-09 14:30:00,
2013-05-09 09:32:00,69.1,63.0,-100.00,South,170,12.0,16.0,81,0.00,,,0.00,meteohub,2013-05-09 14:32:00,
2013-05-09 09:33:00,69.1,63.0,-100.00,South,171,3.0,16.0,81,0.00,,,0.00,meteohub,2013-05-09 14:33:00,
2013-05-09 09:34:00,69.1,63.7,-100.00,SSE,167,6.0,16.0,83,0.00,,,0.00,meteohub,2013-05-09 14:34:00,
2013-05-09 09:35:00,69.1,63.7,-100.00,South,169,5.0,16.0,83,0.00,,,0.00,meteohub,2013-05-09 14:35:00,
2013-05-09 09:38:00,69.1,63.0,-100.00,SSE,157,6.0,16.0,81,0.00,,,0.00,meteohub,2013-05-09 14:38:00,
2013-05-09 09:39:00,69.1,63.0,-100.00,SSE,155,6.0,16.0,81,0.00,,,0.00,meteohub,2013-05-09 14:39:00,
2013-05-09 09:40:00,69.1,63.0,-100.00,South,173,10.0,16.0,81,0.00,,,0.00,meteohub,2013-05-09 14:40:00,
2013-05-09 09:43:00,69.1,63.0,-100.00,SSE,164,7.0,16.0,81,0.00,,,0.00,meteohub,2013-05-09 14:43:00,
2013-05-09 09:44:00,69.1,63.0,-100.00,SSE,165,7.0,16.0,81,0.00,,,0.00,meteohub,2013-05-09 14:44:00,
2013-05-09 09:45:00,69.1,63.0,-100.00,SSE,165,4.0,13.0,81,0.00,,,0.00,meteohub,2013-05-09 14:45:00,
2013-05-09 09:46:00,69.1,63.0,-100.00,SSE,165,5.0,13.0,81,0.00,,,0.00,meteohub,2013-05-09 14:46:00,
2013-05-09 09:49:00,69.1,63.0,-100.00,SSE,163,3.0,13.0,81,0.00,,,0.00,meteohub,2013-05-09 14:49:00,
2013-05-09 09:50:00,69.1,63.0,-100.00,SSE,159,6.0,13.0,81,0.00,,,0.00,meteohub,2013-05-09 14:50:00,
2013-05-09 09:51:00,69.3,63.1,-100.00,SSE,168,8.0,13.0,81,0.00,,,0.00,meteohub,2013-05-09 14:51:00,
2013-05-09 09:54:00,69.3,63.1,-100.00,South,171,5.0,13.0,81,0.00,,,0.00,meteohub,2013-05-09 14:54:00,
2013-05-09 09:56:00,69.4,63.3,-100.00,SSE,160,7.0,14.0,81,0.00,,,0.00,meteohub,2013-05-09 14:56:00,
2013-05-09 09:57:00,69.4,63.3,-100.00,SSE,160,4.0,14.0,81,0.00,,,0.00,meteohub,2013-05-09 14:57:00,
2013-05-09 09:59:00,69.6,63.5,-100.00,SSE,148,6.0,14.0,81,0.00,,,0.00,meteohub,2013-05-09 14:59:00,
2013-05-09 10:00:00,69.6,63.5,-100.00,SSE,152,5.0,14.0,81,0.00,,,0.00,meteohub,2013-05-09 15:00:00,
2013-05-09 10:01:00,69.6,63.5,-100.00,SSE,163,12.0,14.0,81,0.00,,,0.00,meteohub,2013-05-09 15:01:00,
2013-05-09 10:02:00,69.6,63.5,-100.00,SSE,165,9.0,14.0,81,0.00,,,0.00,meteohub,2013-05-09 15:02:00,
2013-05-09 10:05:00,69.8,63.7,-100.00,SSE,159,9.0,15.0,81,0.00,,,0.00,meteohub,2013-05-09 15:05:00,
2013-05-09 10:06:00,69.8,63.7,-100.00,SSE,165,3.0,15.0,81,0.00,,,0.00,meteohub,2013-05-09 15:06:00,
2013-05-09 10:07:00,69.8,63.7,-100.00,South,171,9.0,15.0,81,0.00,,,0.00,meteohub,2013-05-09 15:07:00,
2013-05-09 10:08:00,70.0,63.9,-100.00,South,173,5.0,15.0,81,0.00,,,0.00,meteohub,2013-05-09 15:08:00,
2013-05-09 10:10:00,70.2,64.0,-100.00,South,186,7.0,15.0,81,0.00,,,0.00,meteohub,2013-05-09 15:10:00,
2013-05-09 10:12:00,70.2,63.7,-100.00,SSW,209,9.0,15.0,80,0.00,,,0.00,meteohub,2013-05-09 15:12:00,
2013-05-09 10:14:00,70.2,63.7,-100.00,South,183,10.0,15.0,80,0.00,,,0.00,meteohub,2013-05-09 15:14:00,
2013-05-09 10:16:00,70.2,63.7,-100.00,South,187,3.0,15.0,80,0.00,,,0.00,meteohub,2013-05-09 15:16:00,
2013-05-09 10:17:00,70.2,63.7,-100.00,South,173,5.0,15.0,80,0.00,,,0.00,meteohub,2013-05-09 15:17:00,
2013-05-09 10:19:00,70.2,63.7,-100.00,South,173,4.0,15.0,80,0.00,,,0.00,meteohub,2013-05-09 15:19:00,
2013-05-09 10:20:00,70.2,63.7,-100.00,South,173,7.0,11.0,80,0.00,,,0.00,meteohub,2013-05-09 15:20:00,
2013-05-09 10:22:00,70.2,63.7,-100.00,South,180,5.0,11.0,80,0.00,,,0.00,meteohub,2013-05-09 15:22:00,
2013-05-09 10:24:00,70.2,63.7,-100.00,South,177,7.0,11.0,80,0.00,,,0.00,meteohub,2013-05-09 15:24:00,
2013-05-09 10:25:00,70.2,63.7,-100.00,South,171,9.0,11.0,80,0.00,,,0.00,meteohub,2013-05-09 15:25:00,
2013-05-09 10:27:00,70.2,63.7,-100.00,South,171,9.0,13.0,80,0.00,,,0.00,meteohub,2013-05-09 15:27:00,
2013-05-09 10:29:00,70.2,63.7,-100.00,South,185,9.0,13.0,80,0.00,,,0.00,meteohub,2013-05-09 15:29:00,
2013-05-09 10:30:00,70.2,63.7,-100.00,South,174,8.0,13.0,80,0.00,,,0.00,meteohub,2013-05-09 15:30:00,
2013-05-09 10:33:00,70.0,63.5,-100.00,SSW,195,12.0,13.0,80,0.00,,,0.00,meteohub,2013-05-09 15:33:00,
2013-05-09 10:34:00,70.0,63.5,-100.00,South,189,7.0,13.0,80,0.00,,,0.00,meteohub,2013-05-09 15:34:00,
2013-05-09 10:35:00,70.0,63.5,-100.00,South,189,7.0,13.0,80,0.00,,,0.00,meteohub,2013-05-09 15:35:00,
2013-05-09 10:38:00,70.2,63.7,-100.00,SSW,192,6.0,13.0,80,0.00,,,0.00,meteohub,2013-05-09 15:38:00,
2013-05-09 10:39:00,70.2,63.7,-100.00,South,182,8.0,13.0,80,0.00,,,0.00,meteohub,2013-05-09 15:39:00,
2013-05-09 10:40:00,70.2,63.7,-100.00,South,179,3.0,13.0,80,0.00,,,0.00,meteohub,2013-05-09 15:40:00,
2013-05-09 10:41:00,70.2,63.7,-100.00,South,184,9.0,13.0,80,0.00,,,0.00,meteohub,2013-05-09 15:41:00,
2013-05-09 10:43:00,70.2,63.7,-100.00,South,173,11.0,13.0,80,0.00,,,0.00,meteohub,2013-05-09 15:43:00,
2013-05-09 10:44:00,70.3,63.9,-100.00,SSW,198,2.0,13.0,80,0.00,,,0.00,meteohub,2013-05-09 15:44:00,
2013-05-09 10:46:00,70.3,63.9,-100.00,SSW,196,6.0,14.0,80,0.00,,,0.00,meteohub,2013-05-09 15:46:00,
2013-05-09 10:48:00,70.3,63.9,-100.00,South,185,4.0,14.0,80,0.00,,,0.00,meteohub,2013-05-09 15:48:00,
2013-05-09 10:50:00,70.3,63.9,-100.00,SSW,200,7.0,14.0,80,0.00,,,0.00,meteohub,2013-05-09 15:50:00,
2013-05-09 10:51:00,70.3,63.9,-100.00,SSW,200,9.0,16.0,80,0.00,,,0.00,meteohub,2013-05-09 15:51:00,
2013-05-09 10:53:00,70.5,64.0,-100.00,South,191,6.0,16.0,80,0.00,,,0.00,meteohub,2013-05-09 15:53:00,
2013-05-09 10:54:00,70.5,64.0,-100.00,South,175,11.0,16.0,80,0.00,,,0.00,meteohub,2013-05-09 15:54:00,
2013-05-09 10:56:00,70.5,63.7,-100.00,South,189,10.0,16.0,79,0.00,,,0.00,meteohub,2013-05-09 15:56:00,
2013-05-09 10:57:00,70.9,64.0,-100.00,South,175,2.0,16.0,79,0.00,,,0.00,meteohub,2013-05-09 15:57:00,
2013-05-09 10:58:00,70.9,64.0,-100.00,South,179,4.0,16.0,79,0.00,,,0.00,meteohub,2013-05-09 15:58:00,
2013-05-09 10:59:00,70.9,64.0,-100.00,SSE,168,9.0,16.0,79,0.00,,,0.00,meteohub,2013-05-09 15:59:00,
2013-05-09 11:01:00,70.9,64.0,-100.00,South,177,6.0,16.0,79,0.00,,,0.00,meteohub,2013-05-09 16:01:00,
2013-05-09 11:02:00,70.9,64.0,-100.00,South,182,9.0,16.0,79,0.00,,,0.00,meteohub,2013-05-09 16:02:00,
2013-05-09 11:04:00,70.9,64.4,-100.00,South,184,6.0,16.0,80,0.00,,,0.00,meteohub,2013-05-09 16:04:00,
2013-05-09 11:06:00,70.9,64.0,-100.00,SSE,167,10.0,16.0,79,0.00,,,0.00,meteohub,2013-05-09 16:06:00,
2013-05-09 11:07:00,70.9,64.0,-100.00,South,171,7.0,16.0,79,0.00,,,0.00,meteohub,2013-05-09 16:07:00,
2013-05-09 11:08:00,70.9,64.0,-100.00,South,179,5.0,16.0,79,0.00,,,0.00,meteohub,2013-05-09 16:08:00,
2013-05-09 11:09:00,70.9,64.0,-100.00,South,182,10.0,16.0,79,0.00,,,0.00,meteohub,2013-05-09 16:09:00,
2013-05-09 11:10:00,70.9,64.0,-100.00,South,173,9.0,16.0,79,0.00,,,0.00,meteohub,2013-05-09 16:10:00,
2013-05-09 11:12:00,70.9,64.0,-100.00,South,179,10.0,13.0,79,0.00,,,0.00,meteohub,2013-05-09 16:12:00,
2013-05-09 11:13:00,70.9,64.0,-100.00,SSE,162,13.0,13.0,79,0.00,,,0.00,meteohub,2013-05-09 16:13:00,
2013-05-09 11:14:00,70.9,64.0,-100.00,South,183,6.0,13.0,79,0.00,,,0.00,meteohub,2013-05-09 16:14:00,
2013-05-09 11:15:00,70.9,64.0,-100.00,South,180,4.0,13.0,79,0.00,,,0.00,meteohub,2013-05-09 16:15:00,
2013-05-09 11:17:00,70.9,64.0,-100.00,South,188,10.0,13.0,79,0.00,,,0.00,meteohub,2013-05-09 16:17:00,
2013-05-09 11:18:00,70.5,63.7,-100.00,South,183,6.0,13.0,79,0.00,,,0.00,meteohub,2013-05-09 16:18:00,
2013-05-09 11:19:00,70.5,63.7,-100.00,SSW,198,6.0,13.0,79,0.00,,,0.00,meteohub,2013-05-09 16:19:00,
2013-05-09 11:20:00,70.5,63.7,-100.00,SSW,202,9.0,13.0,79,0.00,,,0.00,meteohub,2013-05-09 16:20:00,
2013-05-09 11:23:00,70.5,64.0,-100.00,South,191,4.0,14.0,80,0.00,,,0.00,meteohub,2013-05-09 16:23:00,
2013-05-09 11:25:00,70.5,64.0,-100.00,South,175,10.0,14.0,80,0.00,,,0.00,meteohub,2013-05-09 16:25:00,
2013-05-09 11:28:00,70.3,63.9,-100.00,South,184,3.0,14.0,80,0.00,,,0.00,meteohub,2013-05-09 16:28:00,
2013-05-09 11:30:00,70.3,63.9,-100.00,South,188,7.0,14.0,80,0.00,,,0.00,meteohub,2013-05-09 16:30:00,
2013-05-09 11:31:00,70.3,63.9,-100.00,South,183,4.0,14.0,80,0.00,,,0.00,meteohub,2013-05-09 16:31:00,
2013-05-09 11:33:00,70.3,63.9,-100.00,South,169,9.0,14.0,80,0.00,,,0.00,meteohub,2013-05-09 16:33:00,
2013-05-09 11:34:00,70.3,63.9,-100.00,SSE,166,5.0,14.0,80,0.00,,,0.00,meteohub,2013-05-09 16:34:00,
2013-05-09 11:35:00,70.3,63.9,-100.00,South,174,4.0,17.0,80,0.00,,,0.00,meteohub,2013-05-09 16:35:00,
2013-05-09 11:36:00,70.3,63.9,-100.00,SSE,155,12.0,17.0,80,0.00,,,0.00,meteohub,2013-05-09 16:36:00,
2013-05-09 11:38:00,70.3,63.9,-100.00,SSE,164,6.0,17.0,80,0.00,,,0.00,meteohub,2013-05-09 16:38:00,
2013-05-09 11:39:00,70.3,63.9,-100.00,South,175,6.0,17.0,80,0.00,,,0.00,meteohub,2013-05-09 16:39:00,
2013-05-09 11:41:00,70.3,64.2,-100.00,SSE,167,5.0,17.0,81,0.00,,,0.00,meteohub,2013-05-09 16:41:00,
2013-05-09 11:44:00,70.3,64.2,-100.00,South,178,5.0,17.0,81,0.00,,,0.00,meteohub,2013-05-09 16:44:00,
2013-05-09 11:46:00,70.3,64.2,-100.00,South,189,5.0,17.0,81,0.00,,,0.00,meteohub,2013-05-09 16:46:00,
2013-05-09 11:49:00,70.3,64.2,-100.00,SSW,205,4.0,17.0,81,0.00,,,0.00,meteohub,2013-05-09 16:49:00,
2013-05-09 11:51:00,70.3,64.2,-100.00,South,180,5.0,14.0,81,0.00,,,0.00,meteohub,2013-05-09 16:51:00,
2013-05-09 11:52:00,70.3,64.2,-100.00,South,188,7.0,14.0,81,0.00,,,0.00,meteohub,2013-05-09 16:52:00,
2013-05-09 11:54:00,70.3,64.6,-100.00,SSW,200,8.0,14.0,82,0.00,,,0.00,meteohub,2013-05-09 16:54:00,
2013-05-09 11:55:00,70.3,64.6,-100.00,SSW,200,6.0,14.0,82,0.00,,,0.00,meteohub,2013-05-09 16:55:00,
2013-05-09 11:57:00,70.3,64.6,-100.00,SSW,196,6.0,14.0,82,0.00,,,0.00,meteohub,2013-05-09 16:57:00,
2013-05-09 12:00:00,70.2,64.4,-100.00,SSW,192,5.0,14.0,82,0.00,,,0.00,meteohub,2013-05-09 17:00:00,
2013-05-09 12:02:00,70.0,64.6,-100.00,SSW,212,9.0,14.0,83,0.00,,,0.00,meteohub,2013-05-09 17:02:00,
2013-05-09 12:05:00,69.8,64.8,-100.00,SSW,210,10.0,14.0,84,0.00,,,0.00,meteohub,2013-05-09 17:05:00,
2013-05-09 12:08:00,69.6,64.9,-100.00,SSW,203,6.0,14.0,85,0.00,,,0.00,meteohub,2013-05-09 17:08:00,
2013-05-09 12:10:00,69.4,65.1,-100.00,SSW,194,6.0,14.0,86,0.00,,,0.00,meteohub,2013-05-09 17:10:00,
2013-05-09 12:13:00,69.3,64.9,-100.00,South,190,4.0,13.0,86,0.00,,,0.00,meteohub,2013-05-09 17:13:00,
2013-05-09 12:15:00,69.3,65.3,-100.00,South,187,6.0,13.0,87,0.00,,,0.00,meteohub,2013-05-09 17:15:00,
2013-05-09 12:16:00,69.1,65.1,-100.00,SSE,154,14.0,14.0,87,0.00,,,0.00,meteohub,2013-05-09 17:16:00,
2013-05-09 12:19:00,69.1,65.3,-100.00,South,186,3.0,13.0,88,0.00,,,0.00,meteohub,2013-05-09 17:19:00,
2013-05-09 12:21:00,69.1,65.3,-100.00,South,184,5.0,13.0,88,0.00,,,0.08,meteohub,2013-05-09 17:21:00,
2013-05-09 12:24:00,69.1,65.3,-100.00,South,190,6.0,14.0,88,0.08,,,0.08,meteohub,2013-05-09 17:24:00,
2013-05-09 12:26:00,69.1,65.7,-100.00,SSW,195,6.0,14.0,89,0.08,,,0.08,meteohub,2013-05-09 17:26:00,
2013-05-09 12:28:00,69.1,65.7,-100.00,SSW,200,5.0,14.0,89,0.08,,,0.08,meteohub,2013-05-09 17:28:00,
2013-05-09 12:29:00,69.1,65.7,-100.00,SSW,200,5.0,14.0,89,0.08,,,0.08,meteohub,2013-05-09 17:29:00,
2013-05-09 12:31:00,69.1,65.7,-100.00,SSW,200,6.0,14.0,89,0.08,,,0.08,meteohub,2013-05-09 17:31:00,
2013-05-09 12:33:00,69.1,65.7,-100.00,SSW,198,4.0,12.0,89,0.08,,,0.08,meteohub,2013-05-09 17:33:00,
2013-05-09 12:35:00,69.1,65.7,-100.00,SSW,205,5.0,12.0,89,0.08,,,0.08,meteohub,2013-05-09 17:35:00,
2013-05-09 12:36:00,69.3,65.8,-100.00,SSW,200,7.0,12.0,89,0.08,,,0.08,meteohub,2013-05-09 17:36:00,
2013-05-09 12:39:00,69.3,65.8,-100.00,SSW,209,11.0,12.0,89,0.08,,,0.08,meteohub,2013-05-09 17:39:00,
2013-05-09 12:40:00,69.3,65.8,-100.00,SSW,200,6.0,12.0,89,0.08,,,0.08,meteohub,2013-05-09 17:40:00,
2013-05-09 12:41:00,69.3,65.8,-100.00,SSW,205,10.0,12.0,89,0.08,,,0.08,meteohub,2013-05-09 17:41:00,
2013-05-09 12:42:00,69.3,65.8,-100.00,SSW,213,13.0,13.0,89,0.08,,,0.08,meteohub,2013-05-09 17:42:00,
2013-05-09 12:44:00,69.3,65.8,-100.00,South,191,6.0,16.0,89,0.08,,,0.08,meteohub,2013-05-09 17:44:00,
2013-05-09 12:45:00,69.3,65.8,-100.00,South,171,13.0,16.0,89,0.08,,,0.08,meteohub,2013-05-09 17:45:00,
2013-05-09 12:46:00,69.3,65.8,-100.00,SSW,200,10.0,16.0,89,0.08,,,0.08,meteohub,2013-05-09 17:46:00,
2013-05-09 12:47:00,69.3,65.8,-100.00,SSW,208,10.0,16.0,89,0.08,,,0.08,meteohub,2013-05-09 17:47:00,
2013-05-09 12:50:00,69.3,65.8,-100.00,SSW,196,6.0,16.0,89,0.08,,,0.08,meteohub,2013-05-09 17:50:00,
2013-05-09 12:51:00,69.3,65.8,-100.00,SSW,200,6.0,16.0,89,0.08,,,0.08,meteohub,2013-05-09 17:51:00,
2013-05-09 12:52:00,69.3,65.8,-100.00,SSW,198,4.0,16.0,89,0.08,,,0.08,meteohub,2013-05-09 17:52:00,
2013-05-09 12:53:00,69.3,65.8,-100.00,South,186,3.0,21.0,89,0.08,,,0.08,meteohub,2013-05-09 17:53:00,
2013-05-09 12:55:00,69.4,66.0,-100.00,SSW,198,5.0,21.0,89,0.08,,,0.08,meteohub,2013-05-09 17:55:00,
2013-05-09 12:56:00,69.4,66.0,-100.00,SSW,199,4.0,21.0,89,0.08,,,0.08,meteohub,2013-05-09 17:56:00,
2013-05-09 12:57:00,69.4,66.0,-100.00,SSW,199,4.0,21.0,89,0.08,,,0.08,meteohub,2013-05-09 17:57:00,
2013-05-09 12:58:00,69.4,66.0,-100.00,South,191,10.0,21.0,89,0.08,,,0.08,meteohub,2013-05-09 17:58:00,
2013-05-09 13:01:00,69.4,66.0,-100.00,SSW,192,4.0,21.0,89,0.08,,,0.08,meteohub,2013-05-09 18:01:00,
2013-05-09 13:02:00,69.4,66.0,-100.00,SSW,196,9.0,21.0,89,0.08,,,0.08,meteohub,2013-05-09 18:02:00,
2013-05-09 13:03:00,69.4,66.0,-100.00,South,182,4.0,21.0,89,0.08,,,0.08,meteohub,2013-05-09 18:03:00,
2013-05-09 13:07:00,69.4,66.0,-100.00,SSW,198,4.0,15.0,89,0.08,,,0.08,meteohub,2013-05-09 18:07:00,
2013-05-09 13:08:00,69.4,66.0,-100.00,South,186,4.0,15.0,89,0.08,,,0.08,meteohub,2013-05-09 18:08:00,
2013-05-09 13:12:00,69.4,66.0,-100.00,SSW,194,8.0,15.0,89,0.08,,,0.08,meteohub,2013-05-09 18:12:00,
2013-05-09 13:13:00,69.4,66.0,-100.00,South,177,3.0,12.0,89,0.00,,,0.08,meteohub,2013-05-09 18:13:00,
2013-05-09 13:14:00,69.4,66.0,-100.00,South,178,2.0,12.0,89,0.00,,,0.08,meteohub,2013-05-09 18:14:00,
2013-05-09 13:17:00,69.4,66.0,-100.00,South,188,3.0,12.0,89,0.00,,,0.08,meteohub,2013-05-09 18:17:00,
2013-05-09 13:18:00,69.4,66.0,-100.00,South,188,4.0,12.0,89,0.00,,,0.08,meteohub,2013-05-09 18:18:00,
2013-05-09 13:20:00,69.4,66.0,-100.00,South,188,4.0,12.0,89,0.00,,,0.08,meteohub,2013-05-09 18:20:00,
2013-05-09 13:22:00,69.4,66.0,-100.00,South,186,4.0,12.0,89,0.00,,,0.08,meteohub,2013-05-09 18:22:00,
2013-05-09 13:23:00,69.4,66.0,-100.00,South,186,2.0,10.0,89,0.00,,,0.08,meteohub,2013-05-09 18:23:00,
2013-05-09 13:25:00,69.4,66.0,-100.00,South,186,6.0,10.0,89,0.00,,,0.08,meteohub,2013-05-09 18:25:00,
2013-05-09 13:28:00,69.4,66.0,-100.00,South,191,5.0,10.0,89,0.00,,,0.08,meteohub,2013-05-09 18:28:00,
2013-05-09 13:30:00,69.4,66.0,-100.00,South,188,5.0,10.0,89,0.00,,,0.08,meteohub,2013-05-09 18:30:00,
2013-05-09 13:31:00,69.4,66.0,-100.00,South,189,5.0,10.0,89,0.00,,,0.08,meteohub,2013-05-09 18:31:00,
2013-05-09 13:33:00,69.4,66.0,-100.00,SSW,204,6.0,12.0,89,0.00,,,0.08,meteohub,2013-05-09 18:33:00,
2013-05-09 13:34:00,69.4,66.0,-100.00,South,186,11.0,12.0,89,0.00,,,0.08,meteohub,2013-05-09 18:34:00,
2013-05-09 13:35:00,69.4,66.0,-100.00,SSW,205,6.0,12.0,89,0.00,,,0.08,meteohub,2013-05-09 18:35:00,
2013-05-09 13:36:00,69.4,66.0,-100.00,SSW,201,10.0,12.0,89,0.00,,,0.08,meteohub,2013-05-09 18:36:00,
2013-05-09 13:38:00,69.3,65.8,-100.00,SSW,205,5.0,12.0,89,0.00,,,0.08,meteohub,2013-05-09 18:38:00,
2013-05-09 13:39:00,69.3,65.8,-100.00,SSW,203,6.0,12.0,89,0.00,,,0.08,meteohub,2013-05-09 18:39:00,
2013-05-09 13:40:00,69.3,65.8,-100.00,SSW,192,3.0,12.0,89,0.00,,,0.08,meteohub,2013-05-09 18:40:00,
2013-05-09 13:41:00,69.3,65.8,-100.00,South,184,7.0,12.0,89,0.00,,,0.08,meteohub,2013-05-09 18:41:00,
2013-05-09 13:43:00,69.3,65.8,-100.00,South,186,12.0,13.0,89,0.00,,,0.08,meteohub,2013-05-09 18:43:00,
2013-05-09 13:44:00,69.3,65.8,-100.00,South,185,7.0,13.0,89,0.00,,,0.08,meteohub,2013-05-09 18:44:00,
2013-05-09 13:46:00,69.3,65.8,-100.00,South,189,6.0,13.0,89,0.00,,,0.08,meteohub,2013-05-09 18:46:00,
2013-05-09 13:48:00,69.3,65.8,-100.00,SSW,195,9.0,13.0,89,0.00,,,0.08,meteohub,2013-05-09 18:48:00,
2013-05-09 13:49:00,69.3,65.8,-100.00,SSW,194,6.0,13.0,89,0.00,,,0.08,meteohub,2013-05-09 18:49:00,
2013-05-09 13:51:00,69.3,65.8,-100.00,SSW,210,6.0,13.0,89,0.00,,,0.08,meteohub,2013-05-09 18:51:00,
2013-05-09 13:52:00,69.3,65.8,-100.00,SSW,211,10.0,13.0,89,0.00,,,0.08,meteohub,2013-05-09 18:52:00,
2013-05-09 13:53:00,69.3,65.8,-100.00,SSW,211,12.0,16.0,89,0.01,,,0.08,meteohub,2013-05-09 18:53:00,
2013-05-09 13:54:00,69.3,65.8,-100.00,SW,217,11.0,16.0,89,0.01,,,0.08,meteohub,2013-05-09 18:54:00,
2013-05-09 13:55:00,69.3,65.8,-100.00,SSW,209,10.0,16.0,89,0.01,,,0.08,meteohub,2013-05-09 18:55:00,
2013-05-09 13:57:00,69.3,65.8,-100.00,SW,221,11.0,16.0,89,0.01,,,0.08,meteohub,2013-05-09 18:57:00,
2013-05-09 13:59:00,69.3,65.8,-100.00,SSW,212,10.0,16.0,89,0.01,,,0.08,meteohub,2013-05-09 18:59:00,
2013-05-09 14:00:00,69.3,65.8,-100.00,SSW,209,5.0,16.0,89,0.01,,,0.08,meteohub,2013-05-09 19:00:00,
2013-05-09 14:02:00,69.3,65.8,-100.00,SSW,208,12.0,16.0,89,0.01,,,0.09,meteohub,2013-05-09 19:02:00,
2013-05-09 14:03:00,69.3,65.8,-100.00,SSW,213,9.0,16.0,89,0.02,,,0.09,meteohub,2013-05-09 19:03:00,
2013-05-09 14:04:00,69.3,65.8,-100.00,SSW,208,12.0,15.0,89,0.02,,,0.09,meteohub,2013-05-09 19:04:00,
2013-05-09 14:05:00,69.3,65.8,-100.00,SSW,206,10.0,15.0,89,0.02,,,0.09,meteohub,2013-05-09 19:05:00,
2013-05-09 14:08:00,69.1,65.7,-100.00,SW,217,11.0,15.0,89,0.02,,,0.09,meteohub,2013-05-09 19:08:00,
2013-05-09 14:09:00,69.1,65.7,-100.00,SSW,213,12.0,15.0,89,0.02,,,0.09,meteohub,2013-05-09 19:09:00,
2013-05-09 14:10:00,69.1,65.7,-100.00,SW,215,4.0,15.0,89,0.02,,,0.09,meteohub,2013-05-09 19:10:00,
2013-05-09 14:11:00,69.1,65.7,-100.00,SSW,211,10.0,15.0,89,0.02,,,0.10,meteohub,2013-05-09 19:11:00,
2013-05-09 14:14:00,69.1,66.0,-100.00,SW,219,6.0,15.0,90,0.03,,,0.10,meteohub,2013-05-09 19:14:00,
2013-05-09 14:15:00,69.1,66.0,-100.00,SW,217,12.0,15.0,90,0.03,,,0.10,meteohub,2013-05-09 19:15:00,
2013-05-09 14:16:00,69.1,66.0,-100.00,SW,217,7.0,15.0,90,0.03,,,0.10,meteohub,2013-05-09 19:16:00,
2013-05-09 14:19:00,69.1,66.0,-100.00,SW,230,7.0,15.0,90,0.03,,,0.10,meteohub,2013-05-09 19:19:00,
2013-05-09 14:20:00,69.1,66.0,-100.00,SW,234,7.0,15.0,90,0.03,,,0.11,meteohub,2013-05-09 19:20:00,
2013-05-09 14:21:00,69.1,66.0,-100.00,SW,218,6.0,15.0,90,0.03,,,0.11,meteohub,2013-05-09 19:21:00,
2013-05-09 14:24:00,69.1,66.0,-100.00,WSW,254,13.0,14.0,90,0.04,,,0.11,meteohub,2013-05-09 19:24:00,
2013-05-09 14:25:00,69.1,66.0,-100.00,SW,229,8.0,14.0,90,0.04,,,0.11,meteohub,2013-05-09 19:25:00,
2013-05-09 14:26:00,69.1,66.0,-100.00,SW,221,7.0,14.0,90,0.04,,,0.11,meteohub,2013-05-09 19:26:00,
2013-05-09 14:27:00,69.1,66.0,-100.00,SSW,207,12.0,14.0,90,0.04,,,0.11,meteohub,2013-05-09 19:27:00,
2013-05-09 14:29:00,68.9,65.8,-100.00,SW,222,10.0,14.0,90,0.04,,,0.11,meteohub,2013-05-09 19:29:00,
2013-05-09 14:30:00,68.9,65.8,-100.00,SSW,213,8.0,14.0,90,0.04,,,0.11,meteohub,2013-05-09 19:30:00,
2013-05-09 14:31:00,68.9,65.8,-100.00,SW,216,9.0,14.0,90,0.04,,,0.13,meteohub,2013-05-09 19:31:00,
2013-05-09 14:32:00,68.9,65.8,-100.00,SSW,213,6.0,14.0,90,0.04,,,0.13,meteohub,2013-05-09 19:32:00,
2013-05-09 14:35:00,68.9,66.2,-100.00,SSW,211,6.0,13.0,91,0.05,,,0.13,meteohub,2013-05-09 19:35:00,
2013-05-09 14:36:00,68.9,66.2,-100.00,SSW,211,6.0,13.0,91,0.05,,,0.13,meteohub,2013-05-09 19:36:00,
2013-05-09 14:37:00,68.9,66.2,-100.00,SSW,211,9.0,13.0,91,0.05,,,0.13,meteohub,2013-05-09 19:37:00,
2013-05-09 14:38:00,68.9,66.2,-100.00,SSW,212,9.0,13.0,91,0.05,,,0.13,meteohub,2013-05-09 19:38:00,
2013-05-09 14:40:00,68.9,66.2,-100.00,SW,217,4.0,13.0,91,0.05,,,0.13,meteohub,2013-05-09 19:40:00,
2013-05-09 14:41:00,68.9,66.2,-100.00,SW,227,5.0,13.0,91,0.05,,,0.15,meteohub,2013-05-09 19:41:00,
2013-05-09 14:42:00,68.9,66.2,-100.00,SW,224,6.0,13.0,91,0.05,,,0.15,meteohub,2013-05-09 19:42:00,
2013-05-09 14:43:00,68.9,66.2,-100.00,SSW,212,8.0,17.0,91,0.07,,,0.15,meteohub,2013-05-09 19:43:00,
2013-05-09 14:46:00,68.9,66.2,-100.00,SW,223,5.0,17.0,91,0.07,,,0.15,meteohub,2013-05-09 19:46:00,
2013-05-09 14:47:00,68.9,66.2,-100.00,SW,225,5.0,17.0,91,0.07,,,0.15,meteohub,2013-05-09 19:47:00,
2013-05-09 14:48:00,68.9,66.2,-100.00,SW,217,9.0,17.0,91,0.07,,,0.15,meteohub,2013-05-09 19:48:00,
2013-05-09 14:49:00,68.9,66.2,-100.00,SW,220,4.0,17.0,91,0.07,,,0.15,meteohub,2013-05-09 19:49:00,
2013-05-09 14:51:00,68.9,66.2,-100.00,SW,229,7.0,17.0,91,0.07,,,0.16,meteohub,2013-05-09 19:51:00,
2013-05-09 14:53:00,68.9,66.2,-100.00,SW,225,8.0,17.0,91,0.07,,,0.16,meteohub,2013-05-09 19:53:00,
2013-05-09 14:55:00,68.9,66.2,-100.00,SW,225,5.0,11.0,91,0.07,,,0.16,meteohub,2013-05-09 19:55:00,
2013-05-09 14:57:00,68.7,66.0,-100.00,SW,219,6.0,11.0,91,0.07,,,0.16,meteohub,2013-05-09 19:57:00,
2013-05-09 14:58:00,68.7,66.4,-100.00,SW,216,10.0,11.0,92,0.07,,,0.16,meteohub,2013-05-09 19:58:00,
2013-05-09 14:59:00,68.7,66.4,-100.00,SW,227,5.0,11.0,92,0.07,,,0.16,meteohub,2013-05-09 19:59:00,
2013-05-09 15:00:00,68.7,66.4,-100.00,SW,220,6.0,11.0,92,0.07,,,0.16,meteohub,2013-05-09 20:00:00,
2013-05-09 15:02:00,68.7,66.4,-100.00,SW,230,7.0,11.0,92,0.07,,,0.17,meteohub,2013-05-09 20:02:00,
2013-05-09 15:03:00,68.7,66.4,-100.00,SW,228,6.0,11.0,92,0.08,,,0.17,meteohub,2013-05-09 20:03:00,
2013-05-09 15:04:00,68.7,66.4,-100.00,SW,232,5.0,14.0,92,0.08,,,0.17,meteohub,2013-05-09 20:04:00,
2013-05-09 15:05:00,68.7,66.4,-100.00,SW,231,4.0,14.0,92,0.08,,,0.17,meteohub,2013-05-09 20:05:00,
2013-05-09 15:07:00,68.7,66.4,-100.00,WSW,250,10.0,14.0,92,0.08,,,0.17,meteohub,2013-05-09 20:07:00,
2013-05-09 15:08:00,68.7,66.4,-100.00,SW,236,8.0,14.0,92,0.08,,,0.17,meteohub,2013-05-09 20:08:00,
2013-05-09 15:09:00,68.7,66.4,-100.00,WSW,239,10.0,14.0,92,0.08,,,0.17,meteohub,2013-05-09 20:09:00,
2013-05-09 15:11:00,68.7,66.4,-100.00,WSW,238,5.0,14.0,92,0.08,,,0.19,meteohub,2013-05-09 20:11:00,
2013-05-09 15:12:00,68.7,66.4,-100.00,SW,234,4.0,14.0,92,0.08,,,0.19,meteohub,2013-05-09 20:12:00,
2013-05-09 15:13:00,68.7,66.4,-100.00,SW,231,5.0,13.0,92,0.08,,,0.19,meteohub,2013-05-09 20:13:00,
2013-05-09 15:14:00,68.7,66.4,-100.00,SW,231,5.0,13.0,92,0.08,,,0.19,meteohub,2013-05-09 20:14:00,
2013-05-09 15:15:00,68.7,66.4,-100.00,WSW,245,1.0,13.0,92,0.08,,,0.19,meteohub,2013-05-09 20:15:00,
2013-05-09 15:16:00,68.7,66.4,-100.00,WSW,244,1.0,13.0,92,0.08,,,0.19,meteohub,2013-05-09 20:16:00,
2013-05-09 15:17:00,68.7,66.4,-100.00,WSW,244,4.0,13.0,92,0.08,,,0.19,meteohub,2013-05-09 20:17:00,
2013-05-09 15:18:00,68.7,66.4,-100.00,WSW,244,3.0,13.0,92,0.08,,,0.19,meteohub,2013-05-09 20:18:00,
2013-05-09 15:20:00,68.7,66.4,-100.00,WSW,244,3.0,13.0,92,0.08,,,0.19,meteohub,2013-05-09 20:20:00,
2013-05-09 15:21:00,68.7,66.4,-100.00,SW,227,4.0,13.0,92,0.08,,,0.20,meteohub,2013-05-09 20:21:00,
2013-05-09 15:22:00,68.5,66.2,-100.00,SW,227,4.0,13.0,92,0.08,,,0.20,meteohub,2013-05-09 20:22:00,
2013-05-09 15:24:00,68.5,66.2,-100.00,SW,227,2.0,12.0,92,0.08,,,0.20,meteohub,2013-05-09 20:24:00,
2013-05-09 15:25:00,68.5,66.2,-100.00,SW,231,1.0,12.0,92,0.08,,,0.20,meteohub,2013-05-09 20:25:00,
2013-05-09 15:26:00,68.5,66.2,-100.00,SW,231,0.0,12.0,92,0.08,,,0.20,meteohub,2013-05-09 20:26:00,
2013-05-09 15:28:00,68.5,66.2,-100.00,SW,232,3.0,12.0,92,0.08,,,0.20,meteohub,2013-05-09 20:28:00,
2013-05-09 15:29:00,68.5,66.2,-100.00,SW,232,4.0,12.0,92,0.08,,,0.20,meteohub,2013-05-09 20:29:00,
2013-05-09 15:30:00,68.5,66.2,-100.00,SW,232,1.0,12.0,92,0.08,,,0.20,meteohub,2013-05-09 20:30:00,
2013-05-09 15:31:00,68.5,66.2,-100.00,SW,234,3.0,12.0,92,0.08,,,0.21,meteohub,2013-05-09 20:31:00,
2013-05-09 15:33:00,68.5,66.2,-100.00,SW,232,4.0,12.0,92,0.08,,,0.21,meteohub,2013-05-09 20:33:00,
2013-05-09 15:34:00,68.5,66.2,-100.00,SW,232,2.0,12.0,92,0.08,,,0.21,meteohub,2013-05-09 20:34:00,
2013-05-09 15:35:00,68.5,66.2,-100.00,SW,228,4.0,12.0,92,0.08,,,0.21,meteohub,2013-05-09 20:35:00,
2013-05-09 15:36:00,68.4,66.0,-100.00,SW,229,4.0,12.0,92,0.08,,,0.21,meteohub,2013-05-09 20:36:00,
2013-05-09 15:38:00,68.4,66.0,-100.00,WSW,243,5.0,12.0,92,0.08,,,0.21,meteohub,2013-05-09 20:38:00,
2013-05-09 15:40:00,68.4,66.0,-100.00,WSW,243,2.0,12.0,92,0.08,,,0.21,meteohub,2013-05-09 20:40:00,
2013-05-09 15:41:00,68.2,65.8,-100.00,WSW,253,2.0,12.0,92,0.08,,,0.22,meteohub,2013-05-09 20:41:00,
2013-05-09 15:43:00,68.2,65.8,-100.00,SW,223,3.0,13.0,92,0.08,,,0.22,meteohub,2013-05-09 20:43:00,
2013-05-09 15:45:00,67.8,65.5,-100.00,SW,219,1.0,13.0,92,0.08,,,0.22,meteohub,2013-05-09 20:45:00,
2013-05-09 15:46:00,67.8,65.5,-100.00,WSW,250,0.0,13.0,92,0.08,,,0.22,meteohub,2013-05-09 20:46:00,
2013-05-09 15:47:00,67.8,65.5,-100.00,WSW,250,3.0,13.0,92,0.08,,,0.22,meteohub,2013-05-09 20:47:00,
2013-05-09 15:49:00,67.8,65.5,-100.00,WSW,252,8.0,13.0,92,0.08,,,0.22,meteohub,2013-05-09 20:49:00,
2013-05-09 15:50:00,67.8,65.5,-100.00,WSW,245,6.0,13.0,92,0.08,,,0.22,meteohub,2013-05-09 20:50:00,
2013-05-09 15:51:00,67.8,65.5,-100.00,SW,231,5.0,13.0,92,0.08,,,0.24,meteohub,2013-05-09 20:51:00,
2013-05-09 15:52:00,67.8,65.5,-100.00,SSW,211,5.0,13.0,92,0.09,,,0.24,meteohub,2013-05-09 20:52:00,
2013-05-09 15:54:00,67.6,65.3,-100.00,SSW,211,2.0,12.0,92,0.09,,,0.24,meteohub,2013-05-09 20:54:00,
2013-05-09 15:56:00,67.6,65.3,-100.00,SSW,196,8.0,12.0,92,0.09,,,0.24,meteohub,2013-05-09 20:56:00,
2013-05-09 15:58:00,67.5,65.1,-100.00,SE,140,11.0,12.0,92,0.09,,,0.24,meteohub,2013-05-09 20:58:00,
2013-05-09 15:59:00,67.5,65.1,-100.00,SE,136,10.0,12.0,92,0.09,,,0.24,meteohub,2013-05-09 20:59:00,
2013-05-09 16:01:00,67.5,65.1,-100.00,SE,140,10.0,12.0,92,0.09,,,0.28,meteohub,2013-05-09 21:01:00,
2013-05-09 16:02:00,67.5,65.1,-100.00,SE,146,7.0,12.0,92,0.09,,,0.28,meteohub,2013-05-09 21:02:00,
2013-05-09 16:03:00,67.5,65.1,-100.00,SE,141,7.0,14.0,92,0.11,,,0.28,meteohub,2013-05-09 21:03:00,
2013-05-09 16:04:00,67.3,64.9,-100.00,SE,127,15.0,15.0,92,0.11,,,0.28,meteohub,2013-05-09 21:04:00,
2013-05-09 16:06:00,67.3,64.9,-100.00,SE,129,13.0,14.0,92,0.11,,,0.28,meteohub,2013-05-09 21:06:00,
2013-05-09 16:07:00,67.1,64.8,-100.00,SE,132,9.0,14.0,92,0.11,,,0.28,meteohub,2013-05-09 21:07:00,
2013-05-09 16:08:00,67.1,64.8,-100.00,SE,126,8.0,14.0,92,0.11,,,0.28,meteohub,2013-05-09 21:08:00,
2013-05-09 16:09:00,67.1,64.8,-100.00,ESE,119,9.0,14.0,92,0.11,,,0.28,meteohub,2013-05-09 21:09:00,
2013-05-09 16:12:00,67.1,64.8,-100.00,ESE,123,7.0,14.0,92,0.11,,,0.32,meteohub,2013-05-09 21:12:00,
2013-05-09 16:14:00,67.1,64.8,-100.00,ESE,107,5.0,15.0,92,0.13,,,0.32,meteohub,2013-05-09 21:14:00,
2013-05-09 16:15:00,67.1,64.8,-100.00,ESE,107,3.0,15.0,92,0.13,,,0.32,meteohub,2013-05-09 21:15:00,
2013-05-09 16:17:00,67.1,64.8,-100.00,SE,136,8.0,15.0,92,0.13,,,0.32,meteohub,2013-05-09 21:17:00,
2013-05-09 16:18:00,67.1,65.8,-100.00,SE,138,6.0,15.0,96,0.13,,,0.32,meteohub,2013-05-09 21:18:00,
2013-05-09 16:19:00,67.1,64.8,-100.00,SE,132,6.0,15.0,92,0.13,,,0.32,meteohub,2013-05-09 21:19:00,
2013-05-09 16:20:00,67.1,64.8,-100.00,SE,129,9.0,15.0,92,0.13,,,0.32,meteohub,2013-05-09 21:20:00,
2013-05-09 16:23:00,67.1,64.8,-100.00,SE,131,7.0,15.0,92,0.12,,,0.32,meteohub,2013-05-09 21:23:00,
2013-05-09 16:24:00,67.1,64.8,-100.00,SE,140,6.0,14.0,92,0.12,,,0.32,meteohub,2013-05-09 21:24:00,
2013-05-09 16:26:00,67.1,64.8,-100.00,SE,140,2.0,14.0,92,0.12,,,0.32,meteohub,2013-05-09 21:26:00,
2013-05-09 16:28:00,67.1,64.8,-100.00,SE,140,2.0,14.0,92,0.12,,,0.32,meteohub,2013-05-09 21:28:00,
2013-05-09 16:29:00,67.1,64.8,-100.00,SE,139,5.0,14.0,92,0.12,,,0.32,meteohub,2013-05-09 21:29:00,
2013-05-09 16:30:00,66.9,64.6,-100.00,SE,138,5.0,14.0,92,0.12,,,0.32,meteohub,2013-05-09 21:30:00,
2013-05-09 16:31:00,66.9,64.6,-100.00,SE,138,6.0,14.0,92,0.12,,,0.32,meteohub,2013-05-09 21:31:00,
2013-05-09 16:33:00,66.7,64.0,-100.00,SE,136,5.0,10.0,91,0.11,,,0.32,meteohub,2013-05-09 21:33:00,
2013-05-09 16:34:00,66.7,64.0,-100.00,SE,135,5.0,10.0,91,0.11,,,0.32,meteohub,2013-05-09 21:34:00,
2013-05-09 16:35:00,66.7,64.0,-100.00,SE,134,6.0,10.0,91,0.11,,,0.32,meteohub,2013-05-09 21:35:00,
2013-05-09 16:36:00,66.7,64.0,-100.00,SE,132,5.0,10.0,91,0.11,,,0.32,meteohub,2013-05-09 21:36:00,
2013-05-09 16:38:00,66.7,64.0,-100.00,SE,132,5.0,10.0,91,0.11,,,0.32,meteohub,2013-05-09 21:38:00,
2013-05-09 16:39:00,66.9,64.2,-100.00,SE,132,6.0,10.0,91,0.11,,,0.32,meteohub,2013-05-09 21:39:00,
2013-05-09 16:41:00,66.9,64.2,-100.00,SE,132,4.0,10.0,91,0.11,,,0.32,meteohub,2013-05-09 21:41:00,
2013-05-09 16:43:00,66.9,64.2,-100.00,SE,143,5.0,9.0,91,0.09,,,0.32,meteohub,2013-05-09 21:43:00,
2013-05-09 16:44:00,66.9,64.2,-100.00,SE,145,5.0,9.0,91,0.09,,,0.32,meteohub,2013-05-09 21:44:00,
2013-05-09 16:46:00,66.9,64.2,-100.00,SSE,153,5.0,9.0,91,0.09,,,0.32,meteohub,2013-05-09 21:46:00,
2013-05-09 16:48:00,66.9,64.2,-100.00,SE,143,5.0,9.0,91,0.09,,,0.32,meteohub,2013-05-09 21:48:00,
2013-05-09 16:49:00,66.9,64.2,-100.00,SE,143,6.0,9.0,91,0.09,,,0.32,meteohub,2013-05-09 21:49:00,
2013-05-09 16:51:00,67.1,64.4,-100.00,SSE,151,6.0,9.0,91,0.09,,,0.32,meteohub,2013-05-09 21:51:00,
2013-05-09 16:52:00,67.1,64.4,-100.00,SSE,155,5.0,9.0,91,0.07,,,0.32,meteohub,2013-05-09 21:52:00,
2013-05-09 16:54:00,67.1,64.4,-100.00,SSE,157,5.0,13.0,91,0.07,,,0.32,meteohub,2013-05-09 21:54:00,
2013-05-09 16:57:00,67.3,64.6,-100.00,SSE,156,5.0,13.0,91,0.07,,,0.32,meteohub,2013-05-09 21:57:00,
2013-05-09 16:58:00,67.3,64.6,-100.00,SSE,156,4.0,13.0,91,0.07,,,0.32,meteohub,2013-05-09 21:58:00,
2013-05-09 16:59:00,67.3,64.6,-100.00,SSE,156,3.0,13.0,91,0.07,,,0.32,meteohub,2013-05-09 21:59:00,
2013-05-09 17:00:00,67.3,64.6,-100.00,SSE,156,2.0,13.0,91,0.07,,,0.32,meteohub,2013-05-09 22:00:00,
2013-05-09 17:03:00,67.3,64.2,-100.00,SE,143,8.0,13.0,90,0.02,,,0.32,meteohub,2013-05-09 22:03:00,
2013-05-09 17:04:00,67.3,64.2,-100.00,SE,143,5.0,11.0,90,0.02,,,0.32,meteohub,2013-05-09 22:04:00,
2013-05-09 17:05:00,67.1,64.0,-100.00,SE,142,4.0,11.0,90,0.02,,,0.32,meteohub,2013-05-09 22:05:00,
2013-05-09 17:08:00,67.1,64.0,-100.00,SE,142,3.0,11.0,90,0.02,,,0.32,meteohub,2013-05-09 22:08:00,
2013-05-09 17:09:00,67.1,64.0,-100.00,SE,141,5.0,11.0,90,0.02,,,0.32,meteohub,2013-05-09 22:09:00,
2013-05-09 17:10:00,66.9,63.9,-100.00,SE,138,5.0,11.0,90,0.02,,,0.32,meteohub,2013-05-09 22:10:00,
2013-05-09 17:11:00,66.9,63.9,-100.00,SE,138,1.0,11.0,90,0.02,,,0.32,meteohub,2013-05-09 22:11:00,
2013-05-09 17:13:00,66.9,63.9,-100.00,SE,138,3.0,10.0,90,0.00,,,0.32,meteohub,2013-05-09 22:13:00,
2013-05-09 17:14:00,67.1,63.7,-100.00,SE,138,2.0,10.0,89,0.00,,,0.32,meteohub,2013-05-09 22:14:00,
2013-05-09 17:15:00,67.1,64.0,-100.00,SE,138,1.0,10.0,90,0.00,,,0.32,meteohub,2013-05-09 22:15:00,
2013-05-09 17:16:00,67.1,64.0,-100.00,SE,138,2.0,10.0,90,0.00,,,0.32,meteohub,2013-05-09 22:16:00,
2013-05-09 17:19:00,67.3,63.9,-100.00,SE,138,3.0,10.0,89,0.00,,,0.32,meteohub,2013-05-09 22:19:00,
2013-05-09 17:20:00,67.3,63.9,-100.00,SE,138,2.0,10.0,89,0.00,,,0.32,meteohub,2013-05-09 22:20:00,
2013-05-09 17:21:00,67.3,63.9,-100.00,SE,138,2.0,10.0,89,0.00,,,0.32,meteohub,2013-05-09 22:21:00,
2013-05-09 17:22:00,67.3,63.9,-100.00,SE,138,3.0,10.0,89,0.00,,,0.32,meteohub,2013-05-09 22:22:00,
2013-05-09 17:24:00,67.5,64.0,-100.00,SE,138,2.0,10.0,89,0.00,,,0.32,meteohub,2013-05-09 22:24:00,
2013-05-09 17:25:00,67.6,64.2,-100.00,SE,138,2.0,10.0,89,0.00,,,0.32,meteohub,2013-05-09 22:25:00,
2013-05-09 17:26:00,67.6,64.2,-100.00,SE,138,3.0,10.0,89,0.00,,,0.32,meteohub,2013-05-09 22:26:00,
2013-05-09 17:27:00,67.8,64.2,-100.00,SE,138,0.0,5.0,88,0.00,,,0.32,meteohub,2013-05-09 22:27:00,
2013-05-09 17:29:00,67.8,64.2,-100.00,SE,138,1.0,5.0,88,0.00,,,0.32,meteohub,2013-05-09 22:29:00,
2013-05-09 17:30:00,67.8,64.2,-100.00,SE,138,1.0,5.0,88,0.00,,,0.32,meteohub,2013-05-09 22:30:00,
2013-05-09 17:31:00,67.8,64.2,-100.00,SE,138,2.0,5.0,88,0.00,,,0.32,meteohub,2013-05-09 22:31:00,
2013-05-09 17:32:00,67.8,64.2,-100.00,SE,138,2.0,5.0,88,0.00,,,0.32,meteohub,2013-05-09 22:32:00,
2013-05-09 17:34:00,68.2,64.4,-100.00,SE,138,1.0,5.0,88,0.00,,,0.32,meteohub,2013-05-09 22:34:00,
2013-05-09 17:35:00,68.2,64.4,-100.00,SE,138,2.0,5.0,88,0.00,,,0.32,meteohub,2013-05-09 22:35:00,
2013-05-09 17:37:00,68.2,64.4,-100.00,SE,138,3.0,5.0,88,0.00,,,0.32,meteohub,2013-05-09 22:37:00,
2013-05-09 17:38:00,68.4,64.6,-100.00,SE,138,3.0,5.0,88,0.00,,,0.32,meteohub,2013-05-09 22:38:00,
2013-05-09 17:39:00,68.4,64.6,-100.00,SE,138,2.0,5.0,88,0.00,,,0.32,meteohub,2013-05-09 22:39:00,
2013-05-09 17:40:00,68.4,64.6,-100.00,SE,138,2.0,5.0,88,0.00,,,0.32,meteohub,2013-05-09 22:40:00,
2013-05-09 17:41:00,68.4,64.6,-100.00,SE,138,2.0,5.0,88,0.00,,,0.32,meteohub,2013-05-09 22:41:00,
2013-05-09 17:42:00,68.4,64.6,-100.00,SE,138,2.0,4.0,88,0.00,,,0.32,meteohub,2013-05-09 22:42:00,
2013-05-09 17:44:00,68.5,64.8,-100.00,SE,138,3.0,4.0,88,0.00,,,0.32,meteohub,2013-05-09 22:44:00,
2013-05-09 17:45:00,68.5,64.8,-100.00,SE,138,3.0,4.0,88,0.00,,,0.32,meteohub,2013-05-09 22:45:00,
2013-05-09 17:46:00,68.5,64.6,-100.00,SE,134,4.0,4.0,87,0.00,,,0.32,meteohub,2013-05-09 22:46:00,
2013-05-09 17:47:00,68.5,64.6,-100.00,SE,134,2.0,4.0,87,0.00,,,0.32,meteohub,2013-05-09 22:47:00,
2013-05-09 17:49:00,68.5,64.8,-100.00,SE,134,2.0,4.0,88,0.00,,,0.32,meteohub,2013-05-09 22:49:00,
2013-05-09 17:50:00,68.7,64.9,-100.00,SE,134,2.0,4.0,88,0.00,,,0.32,meteohub,2013-05-09 22:50:00,
2013-05-09 17:52:00,68.7,64.8,-100.00,SE,134,2.0,4.0,87,0.00,,,0.32,meteohub,2013-05-09 22:52:00,
2013-05-09 17:53:00,68.7,64.9,-100.00,SE,134,2.0,4.0,88,0.00,,,0.32,meteohub,2013-05-09 22:53:00,
2013-05-09 17:54:00,68.7,64.9,-100.00,SE,134,4.0,4.0,88,0.00,,,0.32,meteohub,2013-05-09 22:54:00,
2013-05-09 17:55:00,68.7,64.8,-100.00,SE,134,5.0,5.0,87,0.00,,,0.32,meteohub,2013-05-09 22:55:00,
2013-05-09 17:56:00,68.7,64.8,-100.00,SE,134,4.0,4.0,87,0.00,,,0.32,meteohub,2013-05-09 22:56:00,
2013-05-09 17:57:00,68.7,64.8,-100.00,SE,134,3.0,6.0,87,0.00,,,0.32,meteohub,2013-05-09 22:57:00,
2013-05-09 17:58:00,68.7,64.8,-100.00,SE,134,2.0,6.0,87,0.00,,,0.32,meteohub,2013-05-09 22:58:00,
2013-05-09 18:00:00,68.7,64.8,-100.00,SE,134,2.0,6.0,87,0.00,,,0.32,meteohub,2013-05-09 23:00:00,
2013-05-09 18:01:00,68.7,64.8,-100.00,SE,134,0.0,6.0,87,0.00,,,0.32,meteohub,2013-05-09 23:01:00,
2013-05-09 18:02:00,68.7,64.8,-100.00,SE,134,0.0,6.0,87,0.00,,,0.32,meteohub,2013-05-09 23:02:00,
2013-05-09 18:04:00,68.7,64.8,-100.00,SE,132,4.0,6.0,87,0.00,,,0.32,meteohub,2013-05-09 23:04:00,
2013-05-09 18:05:00,68.7,64.8,-100.00,SE,132,1.0,6.0,87,0.00,,,0.32,meteohub,2013-05-09 23:05:00,
2013-05-09 18:07:00,68.7,64.8,-100.00,SE,132,3.0,6.0,87,0.00,,,0.32,meteohub,2013-05-09 23:07:00,
2013-05-09 18:09:00,68.7,64.8,-100.00,SE,132,3.0,6.0,87,0.00,,,0.32,meteohub,2013-05-09 23:09:00,
2013-05-09 18:11:00,68.7,64.8,-100.00,SE,132,3.0,6.0,87,0.00,,,0.32,meteohub,2013-05-09 23:11:00,
2013-05-09 18:12:00,68.7,64.8,-100.00,SE,132,0.0,5.0,87,0.00,,,0.32,meteohub,2013-05-09 23:12:00,
2013-05-09 18:13:00,68.7,64.8,-100.00,SE,132,0.0,5.0,87,0.00,,,0.32,meteohub,2013-05-09 23:13:00,
2013-05-09 18:14:00,68.7,64.8,-100.00,SE,132,0.0,5.0,87,0.00,,,0.32,meteohub,2013-05-09 23:14:00,
2013-05-09 18:16:00,68.7,64.8,-100.00,SE,132,1.0,5.0,87,0.00,,,0.32,meteohub,2013-05-09 23:16:00,
2013-05-09 18:18:00,68.7,64.8,-100.00,SE,132,0.0,5.0,87,0.00,,,0.32,meteohub,2013-05-09 23:18:00,
2013-05-09 18:19:00,68.7,64.8,-100.00,SE,132,2.0,5.0,87,0.00,,,0.32,meteohub,2013-05-09 23:19:00,
2013-05-09 18:22:00,68.7,64.8,-100.00,SE,131,3.0,5.0,87,0.00,,,0.32,meteohub,2013-05-09 23:22:00,
2013-05-09 18:23:00,68.7,64.8,-100.00,SE,131,4.0,5.0,87,0.00,,,0.32,meteohub,2013-05-09 23:23:00,
2013-05-09 18:24:00,68.7,64.8,-100.00,SE,131,3.0,5.0,87,0.00,,,0.32,meteohub,2013-05-09 23:24:00,
2013-05-09 18:25:00,68.7,64.8,-100.00,SE,131,4.0,5.0,87,0.00,,,0.32,meteohub,2013-05-09 23:25:00,
2013-05-09 18:28:00,68.5,64.6,-100.00,SE,131,1.0,5.0,87,0.00,,,0.32,meteohub,2013-05-09 23:28:00,
2013-05-09 18:29:00,68.5,64.6,-100.00,SE,131,1.0,5.0,87,0.00,,,0.32,meteohub,2013-05-09 23:29:00,
2013-05-09 18:30:00,68.5,64.6,-100.00,SE,131,1.0,5.0,87,0.00,,,0.32,meteohub,2013-05-09 23:30:00,
2013-05-09 18:33:00,68.5,64.6,-100.00,SE,131,1.0,5.0,87,0.00,,,0.32,meteohub,2013-05-09 23:33:00,
2013-05-09 18:34:00,68.5,64.6,-100.00,SE,131,1.0,5.0,87,0.00,,,0.32,meteohub,2013-05-09 23:34:00,
2013-05-09 18:35:00,68.5,64.6,-100.00,SE,131,0.0,5.0,87,0.00,,,0.32,meteohub,2013-05-09 23:35:00,
2013-05-09 18:38:00,68.5,64.6,-100.00,SE,131,0.0,5.0,87,0.00,,,0.32,meteohub,2013-05-09 23:38:00,
2013-05-09 18:39:00,68.5,64.6,-100.00,SE,131,0.0,5.0,87,0.00,,,0.32,meteohub,2013-05-09 23:39:00,
2013-05-09 18:40:00,68.5,64.6,-100.00,SE,131,0.0,5.0,87,0.00,,,0.32,meteohub,2013-05-09 23:40:00,
2013-05-09 18:41:00,68.7,64.8,-100.00,SE,131,0.0,4.0,87,0.00,,,0.32,meteohub,2013-05-09 23:41:00,
2013-05-09 18:44:00,68.7,64.8,-100.00,SE,131,0.0,4.0,87,0.00,,,0.32,meteohub,2013-05-09 23:44:00,
2013-05-09 18:46:00,68.7,64.8,-100.00,SE,131,2.0,3.0,87,0.00,,,0.32,meteohub,2013-05-09 23:46:00,
2013-05-09 18:49:00,68.7,64.8,-100.00,SE,131,3.0,3.0,87,0.00,,,0.32,meteohub,2013-05-09 23:49:00,
2013-05-09 18:51:00,68.7,64.8,-100.00,SE,131,0.0,4.0,87,0.00,,,0.32,meteohub,2013-05-09 23:51:00,
2013-05-09 18:55:00,68.7,64.8,-100.00,SE,131,0.0,4.0,87,0.00,,,0.32,meteohub,2013-05-09 23:55:00,
2013-05-09 18:56:00,68.9,64.9,-100.00,SE,131,0.0,4.0,87,0.00,,,0.32,meteohub,2013-05-09 23:56:00,
2013-05-09 18:57:00,68.9,64.9,-100.00,SE,131,0.0,4.0,87,0.00,,,0.32,meteohub,2013-05-09 23:57:00,
2013-05-09 19:00:00,68.9,64.9,-100.00,SE,131,0.0,4.0,87,0.00,,,0.32,meteohub,2013-05-10 00:00:00,
2013-05-09 19:01:00,68.9,64.9,-100.00,SE,131,0.0,4.0,87,0.00,,,0.32,meteohub,2013-05-10 00:01:00,
2013-05-09 19:02:00,68.9,64.9,-100.00,SE,131,0.0,4.0,87,0.00,,,0.32,meteohub,2013-05-10 00:02:00,
2013-05-09 19:05:00,69.1,65.1,-100.00,SE,131,0.0,4.0,87,0.00,,,0.32,meteohub,2013-05-10 00:05:00,
2013-05-09 19:06:00,69.1,65.1,-100.00,SE,131,0.0,1.0,87,0.00,,,0.32,meteohub,2013-05-10 00:06:00,
2013-05-09 19:07:00,69.1,65.1,-100.00,SE,131,0.0,1.0,87,0.00,,,0.32,meteohub,2013-05-10 00:07:00,
2013-05-09 19:08:00,69.1,65.1,-100.00,SE,131,0.0,1.0,87,0.00,,,0.32,meteohub,2013-05-10 00:08:00,
2013-05-09 19:10:00,69.1,65.1,-100.00,SE,131,0.0,2.0,87,0.00,,,0.32,meteohub,2013-05-10 00:10:00,
2013-05-09 19:11:00,69.1,65.1,-100.00,SE,131,0.0,2.0,87,0.00,,,0.32,meteohub,2013-05-10 00:11:00,
2013-05-09 19:12:00,69.1,65.1,-100.00,SE,131,0.0,2.0,87,0.00,,,0.32,meteohub,2013-05-10 00:12:00,
2013-05-09 19:13:00,69.1,65.1,-100.00,SE,131,0.0,2.0,87,0.00,,,0.32,meteohub,2013-05-10 00:13:00,
2013-05-09 19:14:00,69.1,65.1,-100.00,SE,131,0.0,2.0,87,0.00,,,0.32,meteohub,2013-05-10 00:14:00,
2013-05-09 19:15:00,69.3,65.3,-100.00,SE,131,0.0,2.0,87,0.00,,,0.32,meteohub,2013-05-10 00:15:00,
2013-05-09 19:17:00,69.3,65.3,-100.00,SE,131,0.0,2.0,87,0.00,,,0.32,meteohub,2013-05-10 00:17:00,
2013-05-09 19:18:00,69.3,65.3,-100.00,SE,131,0.0,2.0,87,0.00,,,0.32,meteohub,2013-05-10 00:18:00,
2013-05-09 19:19:00,69.3,65.3,-100.00,SE,131,0.0,2.0,87,0.00,,,0.32,meteohub,2013-05-10 00:19:00,
2013-05-09 19:21:00,69.3,65.3,-100.00,SE,131,0.0,1.0,87,0.00,,,0.32,meteohub,2013-05-10 00:21:00,
2013-05-09 19:22:00,69.3,65.3,-100.00,SE,131,0.0,1.0,87,0.00,,,0.32,meteohub,2013-05-10 00:22:00,
2013-05-09 19:23:00,69.3,65.3,-100.00,SE,131,0.0,1.0,87,0.00,,,0.32,meteohub,2013-05-10 00:23:00,
2013-05-09 19:24:00,69.3,65.3,-100.00,SE,131,0.0,1.0,87,0.00,,,0.32,meteohub,2013-05-10 00:24:00,
2013-05-09 19:25:00,69.3,65.3,-100.00,SE,131,1.0,1.0,87,0.00,,,0.32,meteohub,2013-05-10 00:25:00,
2013-05-09 19:26:00,69.3,65.3,-100.00,SE,131,0.0,1.0,87,0.00,,,0.32,meteohub,2013-05-10 00:26:00,
2013-05-09 19:27:00,69.3,65.3,-100.00,SE,131,0.0,1.0,87,0.00,,,0.32,meteohub,2013-05-10 00:27:00,
2013-05-09 19:28:00,69.3,65.3,-100.00,SE,131,0.0,1.0,87,0.00,,,0.32,meteohub,2013-05-10 00:28:00,
2013-05-09 19:29:00,69.3,65.3,-100.00,SE,131,0.0,1.0,87,0.00,,,0.32,meteohub,2013-05-10 00:29:00,
2013-05-09 19:31:00,69.1,65.1,-100.00,SE,131,0.0,1.0,87,0.00,,,0.32,meteohub,2013-05-10 00:31:00,
2013-05-09 19:32:00,69.1,65.1,-100.00,SE,131,0.0,1.0,87,0.00,,,0.32,meteohub,2013-05-10 00:32:00,
2013-05-09 19:33:00,69.1,65.1,-100.00,SE,131,0.0,1.0,87,0.00,,,0.32,meteohub,2013-05-10 00:33:00,
2013-05-09 19:35:00,69.1,65.1,-100.00,SE,131,0.0,1.0,87,0.00,,,0.32,meteohub,2013-05-10 00:35:00,
2013-05-09 19:36:00,69.1,65.1,-100.00,SE,131,0.0,1.0,87,0.00,,,0.32,meteohub,2013-05-10 00:36:00,
2013-05-09 19:37:00,69.1,65.1,-100.00,SE,131,0.0,1.0,87,0.00,,,0.32,meteohub,2013-05-10 00:37:00,
2013-05-09 19:38:00,69.1,65.1,-100.00,SE,131,0.0,1.0,87,0.00,,,0.32,meteohub,2013-05-10 00:38:00,
2013-05-09 19:40:00,69.1,65.1,-100.00,SE,131,0.0,1.0,87,0.00,,,0.32,meteohub,2013-05-10 00:40:00,
2013-05-09 19:41:00,69.1,65.1,-100.00,SE,131,0.0,1.0,87,0.00,,,0.32,meteohub,2013-05-10 00:41:00,
2013-05-09 19:42:00,69.1,65.1,-100.00,SE,131,0.0,1.0,87,0.00,,,0.32,meteohub,2013-05-10 00:42:00,
2013-05-09 19:43:00,69.1,65.1,-100.00,SE,131,0.0,1.0,87,0.00,,,0.32,meteohub,2013-05-10 00:43:00,
2013-05-09 19:45:00,69.1,65.1,-100.00,SE,131,0.0,1.0,87,0.00,,,0.32,meteohub,2013-05-10 00:45:00,
2013-05-09 19:47:00,69.1,65.3,-100.00,SE,131,0.0,1.0,88,0.00,,,0.32,meteohub,2013-05-10 00:47:00,
2013-05-09 19:48:00,69.1,65.3,-100.00,SE,131,0.0,1.0,88,0.00,,,0.32,meteohub,2013-05-10 00:48:00,
2013-05-09 19:49:00,69.1,65.3,-100.00,SE,131,0.0,1.0,88,0.00,,,0.32,meteohub,2013-05-10 00:49:00,
2013-05-09 19:51:00,68.9,65.1,-100.00,SE,131,2.0,2.0,88,0.00,,,0.32,meteohub,2013-05-10 00:51:00,
2013-05-09 19:52:00,68.9,65.1,-100.00,SE,131,2.0,2.0,88,0.00,,,0.32,meteohub,2013-05-10 00:52:00,
2013-05-09 19:53:00,68.9,65.1,-100.00,SE,131,2.0,2.0,88,0.00,,,0.32,meteohub,2013-05-10 00:53:00,
2013-05-09 19:54:00,68.9,65.1,-100.00,SE,131,3.0,3.0,88,0.00,,,0.32,meteohub,2013-05-10 00:54:00,
2013-05-09 19:56:00,68.9,65.1,-100.00,SE,131,3.0,3.0,88,0.00,,,0.32,meteohub,2013-05-10 00:56:00,
2013-05-09 19:57:00,68.7,64.9,-100.00,SE,131,3.0,3.0,88,0.00,,,0.32,meteohub,2013-05-10 00:57:00,
2013-05-09 19:58:00,68.7,64.9,-100.00,SE,131,3.0,3.0,88,0.00,,,0.32,meteohub,2013-05-10 00:58:00,
2013-05-09 19:59:00,68.7,64.9,-100.00,SE,131,1.0,3.0,88,0.00,,,0.32,meteohub,2013-05-10 00:59:00,
2013-05-09 20:01:00,68.7,65.3,-100.00,SE,131,3.0,5.0,89,0.00,,,0.32,meteohub,2013-05-10 01:01:00,
2013-05-09 20:02:00,68.5,65.1,-100.00,SE,131,2.0,5.0,89,0.00,,,0.32,meteohub,2013-05-10 01:02:00,
2013-05-09 20:03:00,68.5,65.1,-100.00,SE,131,2.0,5.0,89,0.00,,,0.32,meteohub,2013-05-10 01:03:00,
2013-05-09 20:04:00,68.5,65.1,-100.00,SE,131,2.0,5.0,89,0.00,,,0.32,meteohub,2013-05-10 01:04:00,
2013-05-09 20:06:00,68.5,65.1,-100.00,SE,131,3.0,5.0,89,0.00,,,0.32,meteohub,2013-05-10 01:06:00,
2013-05-09 20:08:00,68.4,64.9,-100.00,SE,131,2.0,5.0,89,0.00,,,0.32,meteohub,2013-05-10 01:08:00,
2013-05-09 20:09:00,68.4,64.9,-100.00,SE,131,1.0,5.0,89,0.00,,,0.32,meteohub,2013-05-10 01:09:00,
2013-05-09 20:12:00,68.4,64.9,-100.00,SE,131,5.0,5.0,89,0.00,,,0.32,meteohub,2013-05-10 01:12:00,
2013-05-09 20:13:00,68.4,64.9,-100.00,SE,131,5.0,5.0,89,0.00,,,0.32,meteohub,2013-05-10 01:13:00,
2013-05-09 20:14:00,68.4,64.9,-100.00,SE,131,4.0,5.0,89,0.00,,,0.32,meteohub,2013-05-10 01:14:00,
2013-05-09 20:18:00,68.4,64.9,-100.00,SE,131,4.0,5.0,89,0.00,,,0.32,meteohub,2013-05-10 01:18:00,
2013-05-09 20:19:00,68.4,64.9,-100.00,SE,131,5.0,5.0,89,0.00,,,0.32,meteohub,2013-05-10 01:19:00,
2013-05-09 20:20:00,68.4,64.9,-100.00,SE,131,4.0,5.0,89,0.00,,,0.32,meteohub,2013-05-10 01:20:00,
2013-05-09 20:23:00,68.2,64.8,-100.00,SE,131,3.0,5.0,89,0.00,,,0.32,meteohub,2013-05-10 01:23:00,
2013-05-09 20:25:00,68.2,64.8,-100.00,SE,131,4.0,5.0,89,0.00,,,0.32,meteohub,2013-05-10 01:25:00,
2013-05-09 20:28:00,67.8,64.8,-100.00,SE,131,2.0,6.0,90,0.00,,,0.32,meteohub,2013-05-10 01:28:00,
2013-05-09 20:29:00,67.8,64.8,-100.00,SE,131,2.0,6.0,90,0.00,,,0.32,meteohub,2013-05-10 01:29:00,
2013-05-09 20:30:00,67.8,64.8,-100.00,SE,131,4.0,6.0,90,0.00,,,0.32,meteohub,2013-05-10 01:30:00,
2013-05-09 20:33:00,67.8,64.8,-100.00,SE,131,0.0,6.0,90,0.00,,,0.32,meteohub,2013-05-10 01:33:00,
2013-05-09 20:34:00,67.8,64.8,-100.00,SE,131,1.0,6.0,90,0.00,,,0.32,meteohub,2013-05-10 01:34:00,
2013-05-09 20:35:00,67.8,64.8,-100.00,SE,131,3.0,6.0,90,0.00,,,0.32,meteohub,2013-05-10 01:35:00,
2013-05-09 20:36:00,67.8,64.8,-100.00,SE,131,2.0,6.0,90,0.00,,,0.32,meteohub,2013-05-10 01:36:00,
2013-05-09 20:38:00,67.8,64.8,-100.00,SE,131,2.0,6.0,90,0.00,,,0.32,meteohub,2013-05-10 01:38:00,
2013-05-09 20:39:00,67.8,64.8,-100.00,SE,131,2.0,6.0,90,0.00,,,0.32,meteohub,2013-05-10 01:39:00,
2013-05-09 20:40:00,67.8,64.8,-100.00,SE,131,2.0,6.0,90,0.00,,,0.32,meteohub,2013-05-10 01:40:00,
2013-05-09 20:41:00,67.8,64.8,-100.00,SE,131,3.0,6.0,90,0.00,,,0.32,meteohub,2013-05-10 01:41:00,
2013-05-09 20:43:00,67.8,65.1,-100.00,SE,131,3.0,6.0,91,0.00,,,0.32,meteohub,2013-05-10 01:43:00,
2013-05-09 20:45:00,67.8,65.1,-100.00,SE,131,3.0,6.0,91,0.00,,,0.32,meteohub,2013-05-10 01:45:00,
2013-05-09 20:46:00,67.8,65.1,-100.00,SE,131,2.0,4.0,91,0.00,,,0.32,meteohub,2013-05-10 01:46:00,
2013-05-09 20:47:00,67.8,65.1,-100.00,SE,131,1.0,4.0,91,0.00,,,0.32,meteohub,2013-05-10 01:47:00,
2013-05-09 20:48:00,67.8,65.1,-100.00,SE,131,2.0,4.0,91,0.00,,,0.32,meteohub,2013-05-10 01:48:00,
2013-05-09 20:50:00,67.8,65.1,-100.00,SE,131,1.0,4.0,91,0.00,,,0.32,meteohub,2013-05-10 01:50:00,
2013-05-09 20:51:00,67.8,65.1,-100.00,SE,131,1.0,4.0,91,0.00,,,0.32,meteohub,2013-05-10 01:51:00,
2013-05-09 20:52:00,68.2,65.5,-100.00,SE,131,1.0,4.0,91,0.00,,,0.32,meteohub,2013-05-10 01:52:00,
2013-05-09 20:54:00,68.2,65.5,-100.00,SE,131,1.0,4.0,91,0.00,,,0.32,meteohub,2013-05-10 01:54:00,
2013-05-09 20:56:00,68.2,65.5,-100.00,SE,131,0.0,4.0,91,0.00,,,0.32,meteohub,2013-05-10 01:56:00,
2013-05-09 20:57:00,68.2,65.5,-100.00,SE,131,0.0,4.0,91,0.00,,,0.32,meteohub,2013-05-10 01:57:00,
2013-05-09 20:59:00,68.2,65.5,-100.00,SE,131,1.0,4.0,91,0.00,,,0.32,meteohub,2013-05-10 01:59:00,
2013-05-09 21:01:00,68.2,65.5,-100.00,SE,131,2.0,4.0,91,0.00,,,0.32,meteohub,2013-05-10 02:01:00,
2013-05-09 21:02:00,68.2,65.5,-100.00,SE,131,3.0,4.0,91,0.00,,,0.32,meteohub,2013-05-10 02:02:00,
2013-05-09 21:03:00,68.2,65.5,-100.00,SE,131,3.0,4.0,91,0.00,,,0.32,meteohub,2013-05-10 02:03:00,
2013-05-09 21:04:00,68.2,65.5,-100.00,SE,131,2.0,4.0,91,0.00,,,0.32,meteohub,2013-05-10 02:04:00,
2013-05-09 21:06:00,67.8,65.1,-100.00,SE,131,0.0,4.0,91,0.00,,,0.32,meteohub,2013-05-10 02:06:00,
2013-05-09 21:07:00,67.8,65.1,-100.00,SE,131,1.0,4.0,91,0.00,,,0.32,meteohub,2013-05-10 02:07:00,
2013-05-09 21:08:00,67.8,65.1,-100.00,SE,131,0.0,4.0,91,0.00,,,0.32,meteohub,2013-05-10 02:08:00,
2013-05-09 21:10:00,67.8,65.1,-100.00,SE,131,0.0,4.0,91,0.00,,,0.32,meteohub,2013-05-10 02:10:00,
2013-05-09 21:12:00,67.8,65.1,-100.00,SE,131,0.0,4.0,91,0.00,,,0.32,meteohub,2013-05-10 02:12:00,
2013-05-09 21:13:00,67.8,65.1,-100.00,SE,131,1.0,4.0,91,0.00,,,0.32,meteohub,2013-05-10 02:13:00,
2013-05-09 21:15:00,67.8,65.1,-100.00,SE,131,0.0,4.0,91,0.00,,,0.32,meteohub,2013-05-10 02:15:00,
2013-05-09 21:17:00,67.8,65.1,-100.00,SE,131,1.0,4.0,91,0.00,,,0.32,meteohub,2013-05-10 02:17:00,
2013-05-09 21:18:00,67.8,65.1,-100.00,SE,131,0.0,4.0,91,0.00,,,0.32,meteohub,2013-05-10 02:18:00,
2013-05-09 21:21:00,67.6,64.9,-100.00,SE,131,1.0,2.0,91,0.00,,,0.32,meteohub,2013-05-10 02:21:00,
2013-05-09 21:22:00,67.6,64.9,-100.00,SE,131,1.0,2.0,91,0.00,,,0.32,meteohub,2013-05-10 02:22:00,
2013-05-09 21:23:00,67.6,64.9,-100.00,SE,131,0.0,2.0,91,0.00,,,0.32,meteohub,2013-05-10 02:23:00,
2013-05-09 21:24:00,67.5,64.8,-100.00,SE,131,1.0,2.0,91,0.00,,,0.32,meteohub,2013-05-10 02:24:00,
2013-05-09 21:26:00,67.5,65.1,-100.00,SE,131,0.0,2.0,92,0.00,,,0.32,meteohub,2013-05-10 02:26:00,
2013-05-09 21:27:00,67.5,65.1,-100.00,SE,131,0.0,2.0,92,0.00,,,0.32,meteohub,2013-05-10 02:27:00,
2013-05-09 21:28:00,67.5,65.1,-100.00,SE,131,0.0,2.0,92,0.00,,,0.32,meteohub,2013-05-10 02:28:00,
2013-05-09 21:29:00,67.5,65.1,-100.00,SE,131,0.0,2.0,92,0.00,,,0.32,meteohub,2013-05-10 02:29:00,
2013-05-09 21:32:00,67.3,64.9,-100.00,SE,131,0.0,2.0,92,0.00,,,0.32,meteohub,2013-05-10 02:32:00,
2013-05-09 21:33:00,67.3,64.9,-100.00,SE,131,0.0,2.0,92,0.00,,,0.32,meteohub,2013-05-10 02:33:00,
2013-05-09 21:34:00,67.3,64.9,-100.00,SE,131,2.0,2.0,92,0.00,,,0.32,meteohub,2013-05-10 02:34:00,
2013-05-09 21:37:00,67.1,64.8,-100.00,SE,131,3.0,3.0,92,0.00,,,0.32,meteohub,2013-05-10 02:37:00,
2013-05-09 21:38:00,67.1,64.8,-100.00,SE,131,1.0,3.0,92,0.00,,,0.32,meteohub,2013-05-10 02:38:00,
2013-05-09 21:39:00,67.1,64.8,-100.00,SE,131,2.0,3.0,92,0.00,,,0.32,meteohub,2013-05-10 02:39:00,
2013-05-09 21:42:00,67.1,64.8,-100.00,SE,131,2.0,4.0,92,0.00,,,0.32,meteohub,2013-05-10 02:42:00,
2013-05-09 21:43:00,67.1,64.8,-100.00,SE,131,4.0,4.0,92,0.00,,,0.32,meteohub,2013-05-10 02:43:00,
2013-05-09 21:44:00,67.1,64.8,-100.00,SE,131,3.0,4.0,92,0.00,,,0.32,meteohub,2013-05-10 02:44:00,
2013-05-09 21:47:00,67.1,64.8,-100.00,SE,131,1.0,4.0,92,0.00,,,0.32,meteohub,2013-05-10 02:47:00,
2013-05-09 21:48:00,67.1,64.8,-100.00,SE,131,2.0,4.0,92,0.00,,,0.32,meteohub,2013-05-10 02:48:00,
2013-05-09 21:49:00,67.1,64.8,-100.00,SE,131,1.0,4.0,92,0.00,,,0.32,meteohub,2013-05-10 02:49:00,
2013-05-09 21:52:00,67.3,64.9,-100.00,SE,131,1.0,4.0,92,0.00,,,0.32,meteohub,2013-05-10 02:52:00,
2013-05-09 21:53:00,67.3,64.9,-100.00,SE,131,1.0,4.0,92,0.00,,,0.32,meteohub,2013-05-10 02:53:00,
2013-05-09 21:54:00,67.3,64.9,-100.00,SE,131,1.0,4.0,92,0.00,,,0.32,meteohub,2013-05-10 02:54:00,
2013-05-09 21:55:00,67.3,64.9,-100.00,SE,131,2.0,4.0,92,0.00,,,0.32,meteohub,2013-05-10 02:55:00,
2013-05-09 21:59:00,67.1,64.8,-100.00,SE,131,2.0,4.0,92,0.00,,,0.32,meteohub,2013-05-10 02:59:00,
2013-05-09 22:01:00,67.1,64.8,-100.00,SE,131,1.0,4.0,92,0.00,,,0.32,meteohub,2013-05-10 03:01:00,
2013-05-09 22:04:00,67.1,64.8,-100.00,SE,131,2.0,4.0,92,0.00,,,0.32,meteohub,2013-05-10 03:04:00,
2013-05-09 22:05:00,67.1,64.8,-100.00,SE,131,2.0,4.0,92,0.00,,,0.32,meteohub,2013-05-10 03:05:00,
2013-05-09 22:06:00,67.1,64.8,-100.00,SE,131,1.0,4.0,92,0.00,,,0.32,meteohub,2013-05-10 03:06:00,
2013-05-09 22:09:00,67.3,65.1,-100.00,SE,131,3.0,4.0,93,0.00,,,0.32,meteohub,2013-05-10 03:09:00,
2013-05-09 22:10:00,67.3,65.1,-100.00,SE,131,3.0,4.0,93,0.00,,,0.32,meteohub,2013-05-10 03:10:00,
2013-05-09 22:12:00,67.5,65.3,-100.00,SE,131,2.0,4.0,93,0.00,,,0.32,meteohub,2013-05-10 03:12:00,
2013-05-09 22:14:00,67.5,65.3,-100.00,SE,131,1.0,4.0,93,0.00,,,0.32,meteohub,2013-05-10 03:14:00,
2013-05-09 22:15:00,67.6,65.5,-100.00,SE,131,3.0,4.0,93,0.00,,,0.32,meteohub,2013-05-10 03:15:00,
2013-05-09 22:17:00,67.6,65.5,-100.00,SE,131,2.0,4.0,93,0.00,,,0.32,meteohub,2013-05-10 03:17:00,
2013-05-09 22:19:00,67.6,65.5,-100.00,SE,131,2.0,4.0,93,0.00,,,0.32,meteohub,2013-05-10 03:19:00,
2013-05-09 22:20:00,67.6,65.5,-100.00,SE,131,2.0,4.0,93,0.00,,,0.32,meteohub,2013-05-10 03:20:00,
2013-05-09 22:22:00,67.6,65.5,-100.00,SE,131,2.0,4.0,93,0.00,,,0.32,meteohub,2013-05-10 03:22:00,
2013-05-09 22:24:00,67.6,65.5,-100.00,SE,131,2.0,4.0,93,0.00,,,0.32,meteohub,2013-05-10 03:24:00,
2013-05-09 22:26:00,67.6,65.5,-100.00,SE,131,2.0,4.0,93,0.00,,,0.32,meteohub,2013-05-10 03:26:00,
2013-05-09 22:27:00,67.6,65.5,-100.00,SE,131,1.0,4.0,93,0.00,,,0.32,meteohub,2013-05-10 03:27:00,
2013-05-09 22:30:00,67.6,65.5,-100.00,SE,131,1.0,4.0,93,0.00,,,0.32,meteohub,2013-05-10 03:30:00,
2013-05-09 22:31:00,67.6,65.5,-100.00,SE,131,1.0,4.0,93,0.00,,,0.32,meteohub,2013-05-10 03:31:00,
2013-05-09 22:32:00,67.6,65.5,-100.00,SE,131,3.0,4.0,93,0.00,,,0.32,meteohub,2013-05-10 03:32:00,
2013-05-09 22:35:00,67.6,65.5,-100.00,SE,131,1.0,4.0,93,0.00,,,0.32,meteohub,2013-05-10 03:35:00,
2013-05-09 22:36:00,67.6,65.5,-100.00,SE,131,3.0,4.0,93,0.00,,,0.32,meteohub,2013-05-10 03:36:00,
2013-05-09 22:37:00,67.6,65.5,-100.00,SE,131,3.0,4.0,93,0.00,,,0.32,meteohub,2013-05-10 03:37:00,
2013-05-09 22:38:00,67.6,65.5,-100.00,SE,131,2.0,4.0,93,0.00,,,0.32,meteohub,2013-05-10 03:38:00,
2013-05-09 22:41:00,67.8,65.7,-100.00,SE,131,3.0,5.0,93,0.00,,,0.32,meteohub,2013-05-10 03:41:00,
2013-05-09 22:42:00,67.8,65.7,-100.00,SE,131,2.0,5.0,93,0.00,,,0.32,meteohub,2013-05-10 03:42:00,
2013-05-09 22:43:00,67.8,65.7,-100.00,SE,131,3.0,5.0,93,0.00,,,0.32,meteohub,2013-05-10 03:43:00,
2013-05-09 22:46:00,67.8,65.7,-100.00,SE,131,3.0,5.0,93,0.00,,,0.32,meteohub,2013-05-10 03:46:00,
2013-05-09 22:47:00,67.8,65.7,-100.00,SE,131,1.0,5.0,93,0.00,,,0.32,meteohub,2013-05-10 03:47:00,
2013-05-09 22:48:00,67.8,66.0,-100.00,SE,131,2.0,5.0,94,0.00,,,0.32,meteohub,2013-05-10 03:48:00,
2013-05-09 22:51:00,67.8,66.0,-100.00,SE,131,2.0,5.0,94,0.00,,,0.32,meteohub,2013-05-10 03:51:00,
2013-05-09 22:52:00,67.8,66.0,-100.00,SE,131,1.0,5.0,94,0.00,,,0.32,meteohub,2013-05-10 03:52:00,
2013-05-09 22:53:00,67.8,66.0,-100.00,SE,131,2.0,5.0,94,0.00,,,0.32,meteohub,2013-05-10 03:53:00,
2013-05-09 22:56:00,67.8,66.0,-100.00,SE,131,2.0,4.0,94,0.00,,,0.32,meteohub,2013-05-10 03:56:00,
2013-05-09 22:58:00,67.8,66.0,-100.00,SE,131,1.0,4.0,94,0.00,,,0.32,meteohub,2013-05-10 03:58:00,
2013-05-09 22:59:00,67.8,66.0,-100.00,SE,131,0.0,4.0,94,0.00,,,0.32,meteohub,2013-05-10 03:59:00,
2013-05-09 23:01:00,67.8,66.0,-100.00,SE,131,2.0,4.0,94,0.00,,,0.32,meteohub,2013-05-10 04:01:00,
2013-05-09 23:06:00,67.8,66.0,-100.00,SE,131,1.0,4.0,94,0.00,,,0.32,meteohub,2013-05-10 04:06:00,
2013-05-09 23:07:00,67.8,66.0,-100.00,SE,131,3.0,4.0,94,0.00,,,0.32,meteohub,2013-05-10 04:07:00,
2013-05-09 23:11:00,67.8,66.0,-100.00,SE,131,2.0,4.0,94,0.00,,,0.32,meteohub,2013-05-10 04:11:00,
2013-05-09 23:12:00,67.8,66.0,-100.00,SE,131,1.0,4.0,94,0.00,,,0.32,meteohub,2013-05-10 04:12:00,
2013-05-09 23:16:00,67.8,66.0,-100.00,SE,131,0.0,3.0,94,0.00,,,0.32,meteohub,2013-05-10 04:16:00,
2013-05-09 23:17:00,67.8,66.0,-100.00,SE,131,1.0,3.0,94,0.00,,,0.32,meteohub,2013-05-10 04:17:00,
2013-05-09 23:21:00,67.8,66.0,-100.00,SE,131,2.0,3.0,94,0.00,,,0.32,meteohub,2013-05-10 04:21:00,
2013-05-09 23:22:00,67.8,66.0,-100.00,SE,131,2.0,3.0,94,0.00,,,0.32,meteohub,2013-05-10 04:22:00,
2013-05-09 23:26:00,67.8,66.0,-100.00,SE,131,1.0,4.0,94,0.00,,,0.32,meteohub,2013-05-10 04:26:00,
2013-05-09 23:27:00,67.8,66.0,-100.00,SE,131,1.0,4.0,94,0.00,,,0.32,meteohub,2013-05-10 04:27:00,
2013-05-09 23:28:00,67.8,66.0,-100.00,SE,131,3.0,4.0,94,0.00,,,0.32,meteohub,2013-05-10 04:28:00,
2013-05-09 23:29:00,67.8,66.0,-100.00,SE,131,1.0,4.0,94,0.00,,,0.32,meteohub,2013-05-10 04:29:00,
2013-05-09 23:32:00,67.8,66.0,-100.00,SE,131,2.0,4.0,94,0.00,,,0.32,meteohub,2013-05-10 04:32:00,
2013-05-09 23:33:00,67.8,66.0,-100.00,SE,131,2.0,4.0,94,0.00,,,0.32,meteohub,2013-05-10 04:33:00,
2013-05-09 23:34:00,67.8,66.0,-100.00,SE,131,0.0,4.0,94,0.00,,,0.32,meteohub,2013-05-10 04:34:00,
2013-05-09 23:37:00,67.8,66.0,-100.00,SE,131,1.0,4.0,94,0.00,,,0.32,meteohub,2013-05-10 04:37:00,
2013-05-09 23:38:00,67.8,66.0,-100.00,SE,131,2.0,4.0,94,0.00,,,0.32,meteohub,2013-05-10 04:38:00,
2013-05-09 23:40:00,67.8,66.0,-100.00,SE,131,2.0,4.0,94,0.00,,,0.32,meteohub,2013-05-10 04:40:00,
2013-05-09 23:42:00,67.8,66.0,-100.00,SE,131,1.0,4.0,94,0.00,,,0.32,meteohub,2013-05-10 04:42:00,
2013-05-09 23:43:00,67.8,66.0,-100.00,SE,131,2.0,4.0,94,0.00,,,0.32,meteohub,2013-05-10 04:43:00,
2013-05-09 23:44:00,67.8,66.0,-100.00,SE,131,0.0,4.0,94,0.00,,,0.32,meteohub,2013-05-10 04:44:00,
2013-05-09 23:45:00,67.8,66.0,-100.00,SE,131,1.0,4.0,94,0.00,,,0.32,meteohub,2013-05-10 04:45:00,
2013-05-09 23:48:00,67.6,65.8,-100.00,SE,131,0.0,5.0,94,0.00,,,0.32,meteohub,2013-05-10 04:48:00,
2013-05-09 23:49:00,67.6,65.8,-100.00,SE,131,0.0,5.0,94,0.00,,,0.32,meteohub,2013-05-10 04:49:00,
2013-05-09 23:50:00,67.6,65.8,-100.00,SE,131,0.0,5.0,94,0.00,,,0.32,meteohub,2013-05-10 04:50:00,
2013-05-09 23:53:00,67.6,65.8,-100.00,SE,131,2.0,5.0,94,0.00,,,0.32,meteohub,2013-05-10 04:53:00,
2013-05-09 23:54:00,67.6,65.8,-100.00,SE,131,3.0,5.0,94,0.00,,,0.32,meteohub,2013-05-10 04:54:00,
2013-05-09 23:55:00,67.5,65.7,-100.00,SE,131,2.0,5.0,94,0.00,,,0.32,meteohub,2013-05-10 04:55:00,
2013-05-09 23:59:00,67.5,65.7,-100.00,SE,131,1.0,5.0,94,0.00,,,0.32,meteohub,2013-05-10 04:59:00,